Observation data for Plainview on 01/17/2021      Previous  Date  Next       Current Mesonet Observations  Soil Data  Daily Summary Page  Observations in Plain Language
KPVS 170600Z 31006KT 00/M08 A3011 RMK A01 T00021076  RH  056%=      5-min Rain = 0
KPVS 170601Z 31006KT 00/M08 A3011 RMK A01 T00011076  RH  056%=      5-min Rain = 0
KPVS 170602Z 31006KT 00/M08 A3011 RMK A01 T00011077  RH  056%=      5-min Rain = 0
KPVS 170603Z 31006KT 00/M08 A3011 RMK A01 T00011077  RH  056%=      5-min Rain = 0
KPVS 170604Z 31006KT 00/M08 A3011 RMK A01 T00011077  RH  056%=      5-min Rain = 0
KPVS 170605Z 31005KT 00/M08 A3011 RMK A01 T00011077  RH  056%=      5-min Rain = 0
KPVS 170606Z 31005KT 00/M08 A3011 RMK A01 T00011077  RH  056%=      5-min Rain = 0
KPVS 170607Z 31005KT 00/M08 A3011 RMK A01 T00011076  RH  056%=      5-min Rain = 0
KPVS 170608Z 30004KT 00/08 A3011 RMK A01 T00-00-76  RH  057%=      5-min Rain = 0
KPVS 170609Z 31004KT M00/M08 A3011 RMK A01 T10011076  RH  057%=      5-min Rain = 0
KPVS 170610Z 31004KT M00/M08 A3011 RMK A01 T10011076  RH  057%=      5-min Rain = 0
KPVS 170611Z 31003KT M00/M08 A3011 RMK A01 T10011076  RH  057%=      5-min Rain = 0
KPVS 170612Z 31004KT M00/M08 A3011 RMK A01 T10011076  RH  057%=      5-min Rain = 0
KPVS 170613Z 31004KT M00/M08 A3011 RMK A01 T10011076  RH  057%=      5-min Rain = 0
KPVS 170614Z 31004KT 00/08 A3011 RMK A01 T00-00-76  RH  057%=      5-min Rain = 0
KPVS 170615Z 31004KT 00/08 A3011 RMK A01 T00000-76  RH  057%=      5-min Rain = 0
KPVS 170616Z 30003KT 00/M08 A3011 RMK A01 T00011076  RH  056%=      5-min Rain = 0
KPVS 170617Z 30003KT 00/M08 A3011 RMK A01 T00021076  RH  056%=      5-min Rain = 0
KPVS 170618Z 30003KT 00/M08 A3011 RMK A01 T00021076  RH  056%=      5-min Rain = 0
KPVS 170619Z 30003KT 00/M08 A3011 RMK A01 T00031076  RH  055%=      5-min Rain = 0
KPVS 170620Z 30003KT 00/M08 A3011 RMK A01 T00031076  RH  055%=      5-min Rain = 0
KPVS 170621Z 30004KT 00/M08 A3011 RMK A01 T00041075  RH  055%=      5-min Rain = 0
KPVS 170622Z 30003KT 01/M08 A3011 RMK A01 T00051075  RH  055%=      5-min Rain = 0
KPVS 170623Z 30003KT 01/M08 A3011 RMK A01 T00051075  RH  055%=      5-min Rain = 0
KPVS 170624Z 30003KT 01/M08 A3011 RMK A01 T00051075  RH  055%=      5-min Rain = 0
KPVS 170625Z 30003KT 01/M08 A3011 RMK A01 T00051075  RH  055%=      5-min Rain = 0
KPVS 170626Z 30003KT 01/M08 A3011 RMK A01 T00051075  RH  055%=      5-min Rain = 0
KPVS 170627Z 29003KT 01/M08 A3011 RMK A01 T00061075  RH  055%=      5-min Rain = 0
KPVS 170628Z 30004KT 01/M08 A3011 RMK A01 T00061075  RH  055%=      5-min Rain = 0
KPVS 170629Z 30004KT 01/M08 A3011 RMK A01 T00061075  RH  055%=      5-min Rain = 0
KPVS 170630Z 30004KT 01/M08 A3011 RMK A01 T00061075  RH  055%=      5-min Rain = 0
KPVS 170631Z 30004KT 01/M08 A3011 RMK A01 T00061075  RH  055%=      5-min Rain = 0
KPVS 170632Z 31004KT 01/M08 A3011 RMK A01 T00061075  RH  055%=      5-min Rain = 0
KPVS 170633Z 31004KT 01/M08 A3011 RMK A01 T00061075  RH  055%=      5-min Rain = 0
KPVS 170634Z 31004KT 01/M08 A3011 RMK A01 T00061075  RH  055%=      5-min Rain = 0
KPVS 170635Z 31004KT 01/M08 A3011 RMK A01 T00061075  RH  055%=      5-min Rain = 0
KPVS 170636Z 31004KT 01/M08 A3011 RMK A01 T00061075  RH  055%=      5-min Rain = 0
KPVS 170637Z 31004KT 01/M07 A3011 RMK A01 T00061074  RH  055%=      5-min Rain = 0
KPVS 170638Z 30004KT 01/M08 A3011 RMK A01 T00051075  RH  055%=      5-min Rain = 0
KPVS 170639Z 31004KT 00/M07 A3011 RMK A01 T00041074  RH  055%=      5-min Rain = 0
KPVS 170640Z 31004KT 00/M07 A3011 RMK A01 T00041074  RH  056%=      5-min Rain = 0
KPVS 170641Z 31004KT 00/M07 A3011 RMK A01 T00031074  RH  056%=      5-min Rain = 0
KPVS 170642Z 31004KT 00/M07 A3011 RMK A01 T00031074  RH  056%=      5-min Rain = 0
KPVS 170643Z 31005KT 00/M07 A3011 RMK A01 T00021074  RH  056%=      5-min Rain = 0
KPVS 170644Z 31005KT 00/M07 A3011 RMK A01 T00021074  RH  057%=      5-min Rain = 0
KPVS 170645Z 31005KT 00/M07 A3011 RMK A01 T00021074  RH  057%=      5-min Rain = 0
KPVS 170646Z 31004KT 00/M07 A3011 RMK A01 T00011074  RH  057%=      5-min Rain = 0
KPVS 170647Z 30004KT 00/M07 A3011 RMK A01 T00011074  RH  057%=      5-min Rain = 0
KPVS 170648Z 30004KT 00/M07 A3011 RMK A01 T00011073  RH  057%=      5-min Rain = 0
KPVS 170649Z 30004KT 00/M07 A3011 RMK A01 T00011074  RH  057%=      5-min Rain = 0
KPVS 170650Z 30004KT 00/M07 A3011 RMK A01 T00011073  RH  057%=      5-min Rain = 0
KPVS 170651Z 30004KT 00/M07 A3011 RMK A01 T00011073  RH  058%=      5-min Rain = 0
KPVS 170652Z 30004KT 00/M07 A3011 RMK A01 T00011073  RH  058%=      5-min Rain = 0
KPVS 170653Z 30003KT 00/M07 A3011 RMK A01 T00011073  RH  058%=      5-min Rain = 0
KPVS 170654Z 30003KT 00/M07 A3011 RMK A01 T00011072  RH  058%=      5-min Rain = 0
KPVS 170655Z 30003KT 00/M07 A3011 RMK A01 T00011072  RH  058%=      5-min Rain = 0
KPVS 170656Z 29003KT 00/M07 A3011 RMK A01 T00011072  RH  058%=      5-min Rain = 0
KPVS 170657Z 29003KT 00/M07 A3011 RMK A01 T00011072  RH  058%=      5-min Rain = 0
KPVS 170658Z 29003KT 00/M07 A3011 RMK A01 T00021072  RH  058%=      5-min Rain = 0
KPVS 170659Z 28002KT 00/M07 A3011 RMK A01 T00021072  RH  058%=      5-min Rain = 0
KPVS 170700Z 28002KT 00/M07 A3011 RMK A01 T00021072  RH  057%=      5-min Rain = 0
KPVS 170701Z 27002KT 00/M07 A3011 RMK A01 T00021072  RH  058%=      5-min Rain = 0
KPVS 170702Z 28002KT 00/M07 A3011 RMK A01 T00021072  RH  058%=      5-min Rain = 0
KPVS 170703Z 28002KT 00/M07 A3011 RMK A01 T00021071  RH  058%=      5-min Rain = 0
KPVS 170704Z 28003KT 00/M07 A3011 RMK A01 T00021071  RH  058%=      5-min Rain = 0
KPVS 170705Z 28003KT 00/M07 A3011 RMK A01 T00011071  RH  058%=      5-min Rain = 0
KPVS 170706Z 29003KT 00/M07 A3011 RMK A01 T00011071  RH  059%=      5-min Rain = 0
KPVS 170707Z 29004KT 00/M07 A3011 RMK A01 T00011070  RH  059%=      5-min Rain = 0
KPVS 170708Z 29003KT 00/M07 A3011 RMK A01 T00021070  RH  058%=      5-min Rain = 0
KPVS 170709Z 30003KT 00/M07 A3011 RMK A01 T00031070  RH  058%=      5-min Rain = 0
KPVS 170710Z 29003KT 00/M07 A3011 RMK A01 T00031070  RH  058%=      5-min Rain = 0
KPVS 170711Z 29003KT 00/M07 A3011 RMK A01 T00041070  RH  058%=      5-min Rain = 0
KPVS 170712Z 29003KT 00/M07 A3011 RMK A01 T00041070  RH  058%=      5-min Rain = 0
KPVS 170713Z 29003KT 00/M07 A3011 RMK A01 T00041070  RH  058%=      5-min Rain = 0
KPVS 170714Z 29003KT 00/M07 A3011 RMK A01 T00031070  RH  058%=      5-min Rain = 0
KPVS 170715Z 29003KT 00/M07 A3011 RMK A01 T00031070  RH  058%=      5-min Rain = 0
KPVS 170716Z 29004KT 00/M07 A3011 RMK A01 T00031070  RH  058%=      5-min Rain = 0
KPVS 170717Z 29003KT 00/M07 A3011 RMK A01 T00031070  RH  058%=      5-min Rain = 0
KPVS 170718Z 30004KT 00/M07 A3011 RMK A01 T00031070  RH  058%=      5-min Rain = 0
KPVS 170719Z 30004KT 00/M07 A3011 RMK A01 T00021070  RH  058%=      5-min Rain = 0
KPVS 170720Z 30004KT 00/M07 A3011 RMK A01 T00021070  RH  058%=      5-min Rain = 0
KPVS 170721Z 30004KT 00/M07 A3011 RMK A01 T00011071  RH  058%=      5-min Rain = 0
KPVS 170722Z 30004KT 00/07 A3011 RMK A01 T00000-71  RH  059%=      5-min Rain = 0
KPVS 170723Z 30004KT 00/07 A3011 RMK A01 T00000-71  RH  059%=      5-min Rain = 0
KPVS 170724Z 30005KT 00/07 A3011 RMK A01 T00000-71  RH  059%=      5-min Rain = 0
KPVS 170725Z 30005KT M00/M07 A3011 RMK A01 T10011072  RH  059%=      5-min Rain = 0
KPVS 170726Z 30004KT M00/M07 A3011 RMK A01 T10021072  RH  059%=      5-min Rain = 0
KPVS 170727Z 30005KT M00/M07 A3011 RMK A01 T10031072  RH  060%=      5-min Rain = 0
KPVS 170728Z 30005KT M00/M07 A3011 RMK A01 T10041072  RH  060%=      5-min Rain = 0
KPVS 170729Z 30004KT M00/M07 A3011 RMK A01 T10041072  RH  060%=      5-min Rain = 0
KPVS 170730Z 30004KT M00/M07 A3011 RMK A01 T10041072  RH  060%=      5-min Rain = 0
KPVS 170731Z 30004KT M01/M07 A3011 RMK A01 T10051072  RH  061%=      5-min Rain = 0
KPVS 170732Z 29004KT M01/M07 A3011 RMK A01 T10061072  RH  061%=      5-min Rain = 0
KPVS 170733Z 29003KT M01/M07 A3011 RMK A01 T10071072  RH  061%=      5-min Rain = 0
KPVS 170734Z 29003KT M01/M07 A3011 RMK A01 T10081071  RH  062%=      5-min Rain = 0
KPVS 170735Z 29004KT M01/M07 A3011 RMK A01 T10081070  RH  063%=      5-min Rain = 0
KPVS 170736Z 29004KT M01/M07 A3011 RMK A01 T10081070  RH  063%=      5-min Rain = 0
KPVS 170737Z 29004KT M01/M07 A3011 RMK A01 T10071070  RH  062%=      5-min Rain = 0
KPVS 170738Z 29004KT M01/M07 A3011 RMK A01 T10061070  RH  062%=      5-min Rain = 0
KPVS 170739Z 29004KT M01/M07 A3011 RMK A01 T10061071  RH  062%=      5-min Rain = 0
KPVS 170740Z 29004KT M01/M07 A3011 RMK A01 T10061071  RH  061%=      5-min Rain = 0
KPVS 170741Z 29004KT M01/M07 A3011 RMK A01 T10061071  RH  061%=      5-min Rain = 0
KPVS 170742Z 29004KT M01/M07 A3011 RMK A01 T10061072  RH  061%=      5-min Rain = 0
KPVS 170743Z 29004KT M01/M07 A3011 RMK A01 T10071072  RH  062%=      5-min Rain = 0
KPVS 170744Z 28004KT M01/M07 A3011 RMK A01 T10081071  RH  062%=      5-min Rain = 0
KPVS 170745Z 28004KT M01/M07 A3011 RMK A01 T10091071  RH  063%=      5-min Rain = 0
KPVS 170746Z 28004KT M01/M07 A3011 RMK A01 T10091070  RH  063%=      5-min Rain = 0
KPVS 170747Z 28003KT M01/M07 A3011 RMK A01 T10091070  RH  063%=      5-min Rain = 0
KPVS 170748Z 29003KT M01/M07 A3011 RMK A01 T10091070  RH  063%=      5-min Rain = 0
KPVS 170749Z 29004KT M01/M07 A3011 RMK A01 T10091070  RH  063%=      5-min Rain = 0
KPVS 170750Z 29004KT M01/M07 A3011 RMK A01 T10091070  RH  063%=      5-min Rain = 0
KPVS 170751Z 30004KT M01/M07 A3011 RMK A01 T10081070  RH  063%=      5-min Rain = 0
KPVS 170752Z 30004KT M01/M07 A3011 RMK A01 T10081070  RH  063%=      5-min Rain = 0
KPVS 170753Z 30004KT M01/M07 A3011 RMK A01 T10081070  RH  063%=      5-min Rain = 0
KPVS 170754Z 31004KT M01/M07 A3011 RMK A01 T10091071  RH  063%=      5-min Rain = 0
KPVS 170755Z 31004KT M01/M07 A3011 RMK A01 T10101071  RH  063%=      5-min Rain = 0
KPVS 170756Z 31004KT M01/M07 A3011 RMK A01 T10111072  RH  063%=      5-min Rain = 0
KPVS 170757Z 30003KT M01/M07 A3011 RMK A01 T10111072  RH  063%=      5-min Rain = 0
KPVS 170758Z 30004KT M01/M07 A3011 RMK A01 T10111072  RH  064%=      5-min Rain = 0
KPVS 170759Z 30004KT M01/M07 A3011 RMK A01 T10111072  RH  064%=      5-min Rain = 0
KPVS 170800Z 29004KT M01/M07 A3011 RMK A01 T10111072  RH  063%=      5-min Rain = 0
KPVS 170801Z 29004KT M01/M07 A3011 RMK A01 T10121072  RH  064%=      5-min Rain = 0
KPVS 170802Z 29004KT M01/M07 A3011 RMK A01 T10121072  RH  064%=      5-min Rain = 0
KPVS 170803Z 29004KT M01/M07 A3011 RMK A01 T10111072  RH  064%=      5-min Rain = 0
KPVS 170804Z 29004KT M01/M07 A3011 RMK A01 T10111072  RH  063%=      5-min Rain = 0
KPVS 170805Z 29004KT M01/M07 A3011 RMK A01 T10111072  RH  063%=      5-min Rain = 0
KPVS 170806Z 29004KT M01/M07 A3011 RMK A01 T10111071  RH  064%=      5-min Rain = 0
KPVS 170807Z 28004KT M01/M07 A3011 RMK A01 T10111071  RH  064%=      5-min Rain = 0
KPVS 170808Z 28004KT M01/M07 A3011 RMK A01 T10111070  RH  064%=      5-min Rain = 0
KPVS 170809Z 28004KT M01/M07 A3011 RMK A01 T10121070  RH  065%=      5-min Rain = 0
KPVS 170810Z 28004KT M01/M07 A3011 RMK A01 T10121070  RH  065%=      5-min Rain = 0
KPVS 170811Z 29004KT M01/M07 A3012 RMK A01 T10131070  RH  065%=      5-min Rain = 0
KPVS 170812Z 28004KT M01/M07 A3012 RMK A01 T10131069  RH  066%=      5-min Rain = 0
KPVS 170813Z 28004KT M01/M07 A3012 RMK A01 T10131069  RH  066%=      5-min Rain = 0
KPVS 170814Z 28004KT M01/M07 A3012 RMK A01 T10131069  RH  066%=      5-min Rain = 0
KPVS 170815Z 28004KT M01/M07 A3012 RMK A01 T10131069  RH  066%=      5-min Rain = 0
KPVS 170816Z 27004KT M01/M07 A3012 RMK A01 T10131069  RH  066%=      5-min Rain = 0
KPVS 170817Z 27004KT M01/M07 A3012 RMK A01 T10131070  RH  065%=      5-min Rain = 0
KPVS 170818Z 27004KT M01/M07 A3012 RMK A01 T10111070  RH  065%=      5-min Rain = 0
KPVS 170819Z 27004KT M01/M07 A3012 RMK A01 T10111070  RH  064%=      5-min Rain = 0
KPVS 170820Z 27005KT M01/M07 A3012 RMK A01 T10101070  RH  064%=      5-min Rain = 0
KPVS 170821Z 27005KT M01/M07 A3012 RMK A01 T10101070  RH  064%=      5-min Rain = 0
KPVS 170822Z 28005KT M01/M07 A3012 RMK A01 T10101070  RH  064%=      5-min Rain = 0
KPVS 170823Z 28005KT M01/M07 A3012 RMK A01 T10101070  RH  064%=      5-min Rain = 0
KPVS 170824Z 28005KT M01/M07 A3012 RMK A01 T10101070  RH  064%=      5-min Rain = 0
KPVS 170825Z 28005KT M01/M07 A3012 RMK A01 T10111071  RH  064%=      5-min Rain = 0
KPVS 170826Z 28004KT M01/M07 A3012 RMK A01 T10121071  RH  064%=      5-min Rain = 0
KPVS 170827Z 28004KT M01/M07 A3012 RMK A01 T10131071  RH  065%=      5-min Rain = 0
KPVS 170828Z 28004KT M01/M07 A3012 RMK A01 T10141071  RH  065%=      5-min Rain = 0
KPVS 170829Z 28004KT M02/M07 A3012 RMK A01 T10151070  RH  066%=      5-min Rain = 0
KPVS 170830Z 28004KT M02/M07 A3012 RMK A01 T10151070  RH  066%=      5-min Rain = 0
KPVS 170831Z 28004KT M02/M07 A3012 RMK A01 T10151070  RH  066%=      5-min Rain = 0
KPVS 170832Z 27004KT M02/M07 A3012 RMK A01 T10151070  RH  066%=      5-min Rain = 0
KPVS 170833Z 28004KT M02/M07 A3012 RMK A01 T10151070  RH  066%=      5-min Rain = 0
KPVS 170834Z 28004KT M01/M07 A3012 RMK A01 T10141070  RH  066%=      5-min Rain = 0
KPVS 170835Z 28004KT M01/M07 A3012 RMK A01 T10141070  RH  066%=      5-min Rain = 0
KPVS 170836Z 28004KT M01/M07 A3012 RMK A01 T10141070  RH  066%=      5-min Rain = 0
KPVS 170837Z 28004KT M01/M07 A3013 RMK A01 T10141070  RH  066%=      5-min Rain = 0
KPVS 170838Z 28005KT M01/M07 A3013 RMK A01 T10141070  RH  066%=      5-min Rain = 0
KPVS 170839Z 28005KT M02/M07 A3013 RMK A01 T10151069  RH  066%=      5-min Rain = 0
KPVS 170840Z 28005KT M02/M07 A3013 RMK A01 T10161070  RH  067%=      5-min Rain = 0
KPVS 170841Z 28005KT M02/M07 A3013 RMK A01 T10171070  RH  067%=      5-min Rain = 0
KPVS 170842Z 28004KT M02/M07 A3013 RMK A01 T10171069  RH  068%=      5-min Rain = 0
KPVS 170843Z 28004KT M02/M07 A3013 RMK A01 T10171069  RH  068%=      5-min Rain = 0
KPVS 170844Z 28005KT M02/M07 A3013 RMK A01 T10171068  RH  068%=      5-min Rain = 0
KPVS 170845Z 28005KT M02/M07 A3013 RMK A01 T10181069  RH  068%=      5-min Rain = 0
KPVS 170846Z 28005KT M02/M07 A3013 RMK A01 T10181069  RH  068%=      5-min Rain = 0
KPVS 170847Z 29005KT M02/M07 A3013 RMK A01 T10181069  RH  068%=      5-min Rain = 0
KPVS 170848Z 29005KT M02/M07 A3013 RMK A01 T10191070  RH  068%=      5-min Rain = 0
KPVS 170849Z 29005KT M02/M07 A3013 RMK A01 T10201070  RH  068%=      5-min Rain = 0
KPVS 170850Z 29005KT M02/M07 A3013 RMK A01 T10211071  RH  069%=      5-min Rain = 0
KPVS 170851Z 29004KT M02/M07 A3013 RMK A01 T10211070  RH  069%=      5-min Rain = 0
KPVS 170852Z 29004KT M02/M07 A3013 RMK A01 T10221070  RH  070%=      5-min Rain = 0
KPVS 170853Z 29004KT M02/M07 A3013 RMK A01 T10231070  RH  070%=      5-min Rain = 0
KPVS 170854Z 29004KT M02/M07 A3013 RMK A01 T10231071  RH  070%=      5-min Rain = 0
KPVS 170855Z 29004KT M03/M07 A3013 RMK A01 T10251071  RH  070%=      5-min Rain = 0
KPVS 170856Z 29004KT M03/M07 A3013 RMK A01 T10251071  RH  071%=      5-min Rain = 0
KPVS 170857Z 30004KT M03/M07 A3013 RMK A01 T10261070  RH  071%=      5-min Rain = 0
KPVS 170858Z 31004KT M03/M07 A3013 RMK A01 T10261070  RH  071%=      5-min Rain = 0
KPVS 170859Z 32004KT M03/M07 A3013 RMK A01 T10271071  RH  071%=      5-min Rain = 0
KPVS 170900Z 32005KT M03/M07 A3013 RMK A01 T10271071  RH  072%=      5-min Rain = 0
KPVS 170901Z 31004KT M03/M07 A3013 RMK A01 T10271070  RH  072%=      5-min Rain = 0
KPVS 170902Z 32004KT M03/M07 A3013 RMK A01 T10251068  RH  072%=      5-min Rain = 0
KPVS 170903Z 31003KT M02/M07 A3013 RMK A01 T10231068  RH  071%=      5-min Rain = 0
KPVS 170904Z 30003KT M02/M07 A3013 RMK A01 T10231069  RH  070%=      5-min Rain = 0
KPVS 170905Z 30003KT M02/M07 A3013 RMK A01 T10231070  RH  070%=      5-min Rain = 0
KPVS 170906Z 30004KT M02/M07 A3013 RMK A01 T10241070  RH  070%=      5-min Rain = 0
KPVS 170907Z 30003KT M02/M07 A3013 RMK A01 T10241070  RH  071%=      5-min Rain = 0
KPVS 170908Z 30003KT M02/M07 A3013 RMK A01 T10241069  RH  071%=      5-min Rain = 0
KPVS 170909Z 30003KT M02/M07 A3013 RMK A01 T10241069  RH  072%=      5-min Rain = 0
KPVS 170910Z 29003KT M02/M07 A3012 RMK A01 T10241069  RH  072%=      5-min Rain = 0
KPVS 170911Z 29003KT M02/M07 A3012 RMK A01 T10241068  RH  072%=      5-min Rain = 0
KPVS 170912Z 29003KT M02/M07 A3012 RMK A01 T10241067  RH  072%=      5-min Rain = 0
KPVS 170913Z 28002KT M02/M07 A3012 RMK A01 T10231067  RH  072%=      5-min Rain = 0
KPVS 170914Z 29002KT M02/M07 A3012 RMK A01 T10231066  RH  072%=      5-min Rain = 0
KPVS 170915Z 29001KT M02/M07 A3012 RMK A01 T10221065  RH  072%=      5-min Rain = 0
KPVS 170916Z 30002KT M02/M07 A3012 RMK A01 T10211066  RH  072%=      5-min Rain = 0
KPVS 170917Z 30002KT M02/M07 A3012 RMK A01 T10211066  RH  072%=      5-min Rain = 0
KPVS 170918Z 30002KT M02/M07 A3012 RMK A01 T10211065  RH  072%=      5-min Rain = 0
KPVS 170919Z 30002KT M02/M07 A3012 RMK A01 T10211065  RH  071%=      5-min Rain = 0
KPVS 170920Z 31002KT M02/M07 A3012 RMK A01 T10211065  RH  071%=      5-min Rain = 0
KPVS 170921Z 31003KT M02/M06 A3012 RMK A01 T10201064  RH  072%=      5-min Rain = 0
KPVS 170922Z 31003KT M02/M06 A3012 RMK A01 T10201064  RH  071%=      5-min Rain = 0
KPVS 170923Z 31004KT M02/M06 A3012 RMK A01 T10201064  RH  071%=      5-min Rain = 0
KPVS 170924Z 32004KT M02/M06 A3012 RMK A01 T10191064  RH  071%=      5-min Rain = 0
KPVS 170925Z 32003KT M02/M06 A3012 RMK A01 T10191064  RH  071%=      5-min Rain = 0
KPVS 170926Z 32004KT M02/M06 A3012 RMK A01 T10191063  RH  072%=      5-min Rain = 0
KPVS 170927Z 32004KT M02/M06 A3012 RMK A01 T10191063  RH  072%=      5-min Rain = 0
KPVS 170928Z 31004KT M02/M06 A3012 RMK A01 T10181063  RH  071%=      5-min Rain = 0
KPVS 170929Z 31004KT M02/M06 A3012 RMK A01 T10181063  RH  071%=      5-min Rain = 0
KPVS 170930Z 32004KT M02/M06 A3012 RMK A01 T10191064  RH  071%=      5-min Rain = 0
KPVS 170931Z 32004KT M02/M07 A3012 RMK A01 T10201065  RH  072%=      5-min Rain = 0
KPVS 170932Z 32004KT M02/M07 A3012 RMK A01 T10211065  RH  072%=      5-min Rain = 0
KPVS 170933Z 32004KT M02/M07 A3012 RMK A01 T10221065  RH  072%=      5-min Rain = 0
KPVS 170934Z 32004KT M02/M07 A3012 RMK A01 T10231065  RH  073%=      5-min Rain = 0
KPVS 170935Z 32003KT M02/M06 A3012 RMK A01 T10231064  RH  074%=      5-min Rain = 0
KPVS 170936Z 32003KT M02/M06 A3012 RMK A01 T10241064  RH  074%=      5-min Rain = 0
KPVS 170937Z 32003KT M02/M06 A3012 RMK A01 T10241063  RH  075%=      5-min Rain = 0
KPVS 170938Z 32003KT M02/M06 A3012 RMK A01 T10241063  RH  075%=      5-min Rain = 0
KPVS 170939Z 32003KT M02/M06 A3012 RMK A01 T10241063  RH  075%=      5-min Rain = 0
KPVS 170940Z 33003KT M02/M06 A3012 RMK A01 T10241062  RH  075%=      5-min Rain = 0
KPVS 170941Z 33003KT M02/M06 A3012 RMK A01 T10231061  RH  075%=      5-min Rain = 0
KPVS 170942Z 33003KT M02/M06 A3012 RMK A01 T10221060  RH  075%=      5-min Rain = 0
KPVS 170943Z 33004KT M02/M06 A3012 RMK A01 T10211060  RH  075%=      5-min Rain = 0
KPVS 170944Z 33004KT M02/M06 A3012 RMK A01 T10201060  RH  074%=      5-min Rain = 0
KPVS 170945Z 32004KT M02/M06 A3012 RMK A01 T10201060  RH  074%=      5-min Rain = 0
KPVS 170946Z 33004KT M02/M06 A3012 RMK A01 T10201061  RH  074%=      5-min Rain = 0
KPVS 170947Z 33004KT M02/M06 A3012 RMK A01 T10211062  RH  074%=      5-min Rain = 0
KPVS 170948Z 33004KT M02/M06 A3012 RMK A01 T10221061  RH  074%=      5-min Rain = 0
KPVS 170949Z 32004KT M02/M06 A3012 RMK A01 T10221061  RH  075%=      5-min Rain = 0
KPVS 170950Z 33004KT M02/M06 A3012 RMK A01 T10221060  RH  075%=      5-min Rain = 0
KPVS 170951Z 33004KT M02/M06 A3012 RMK A01 T10221061  RH  075%=      5-min Rain = 0
KPVS 170952Z 32003KT M02/M06 A3012 RMK A01 T10221061  RH  075%=      5-min Rain = 0
KPVS 170953Z 33003KT M02/M06 A3012 RMK A01 T10221061  RH  075%=      5-min Rain = 0
KPVS 170954Z 32004KT M02/M06 A3012 RMK A01 T10221060  RH  075%=      5-min Rain = 0
KPVS 170955Z 32004KT M02/M06 A3012 RMK A01 T10221060  RH  076%=      5-min Rain = 0
KPVS 170956Z 33004KT M02/M06 A3012 RMK A01 T10221060  RH  075%=      5-min Rain = 0
KPVS 170957Z 32004KT M02/M06 A3011 RMK A01 T10221060  RH  075%=      5-min Rain = 0
KPVS 170958Z 33004KT M02/M06 A3011 RMK A01 T10221059  RH  076%=      5-min Rain = 0
KPVS 170959Z 33004KT M02/M06 A3011 RMK A01 T10221058  RH  076%=      5-min Rain = 0
KPVS 171000Z 33004KT M02/M06 A3011 RMK A01 T10211057  RH  076%=      5-min Rain = 0
KPVS 171001Z 33004KT M02/M06 A3011 RMK A01 T10201057  RH  076%=      5-min Rain = 0
KPVS 171002Z 33004KT M02/M06 A3011 RMK A01 T10201057  RH  076%=      5-min Rain = 0
KPVS 171003Z 33004KT M02/M06 A3011 RMK A01 T10201057  RH  075%=      5-min Rain = 0
KPVS 171004Z 33004KT M02/M06 A3011 RMK A01 T10191057  RH  075%=      5-min Rain = 0
KPVS 171005Z 33004KT M02/M06 A3011 RMK A01 T10191058  RH  075%=      5-min Rain = 0
KPVS 171006Z 33004KT M02/M06 A3011 RMK A01 T10191057  RH  075%=      5-min Rain = 0
KPVS 171007Z 33003KT M02/M06 A3011 RMK A01 T10191057  RH  076%=      5-min Rain = 0
KPVS 171008Z 33004KT M02/M06 A3011 RMK A01 T10191057  RH  076%=      5-min Rain = 0
KPVS 171009Z 33004KT M02/M06 A3011 RMK A01 T10191057  RH  076%=      5-min Rain = 0
KPVS 171010Z 33004KT M02/M06 A3011 RMK A01 T10191056  RH  076%=      5-min Rain = 0
KPVS 171011Z 33004KT M02/M06 A3011 RMK A01 T10181055  RH  076%=      5-min Rain = 0
KPVS 171012Z 33005KT M02/M06 A3011 RMK A01 T10181055  RH  075%=      5-min Rain = 0
KPVS 171013Z 32004KT M02/M06 A3011 RMK A01 T10171056  RH  075%=      5-min Rain = 0
KPVS 171014Z 32005KT M02/M06 A3011 RMK A01 T10171055  RH  075%=      5-min Rain = 0
KPVS 171015Z 32005KT M02/M06 A3011 RMK A01 T10171055  RH  075%=      5-min Rain = 0
KPVS 171016Z 32005KT M02/M06 A3011 RMK A01 T10161055  RH  075%=      5-min Rain = 0
KPVS 171017Z 33005KT M02/M06 A3011 RMK A01 T10161056  RH  074%=      5-min Rain = 0
KPVS 171018Z 32005KT M02/M06 A3011 RMK A01 T10171057  RH  074%=      5-min Rain = 0
KPVS 171019Z 33006KT M02/M06 A3011 RMK A01 T10181058  RH  074%=      5-min Rain = 0
KPVS 171020Z 33006KT M02/M06 A3011 RMK A01 T10191057  RH  075%=      5-min Rain = 0
KPVS 171021Z 33005KT M02/M06 A3011 RMK A01 T10181056  RH  075%=      5-min Rain = 0
KPVS 171022Z 33006KT M02/M06 A3011 RMK A01 T10171055  RH  075%=      5-min Rain = 0
KPVS 171023Z 33005KT M02/M06 A3011 RMK A01 T10161055  RH  074%=      5-min Rain = 0
KPVS 171024Z 33006KT M02/M06 A3011 RMK A01 T10161055  RH  074%=      5-min Rain = 0
KPVS 171025Z 33006KT M02/M06 A3011 RMK A01 T10161056  RH  074%=      5-min Rain = 0
KPVS 171026Z 33006KT M02/M06 A3011 RMK A01 T10161057  RH  073%=      5-min Rain = 0
KPVS 171027Z 32006KT M02/M06 A3011 RMK A01 T10171057  RH  074%=      5-min Rain = 0
KPVS 171028Z 32006KT M02/M06 A3011 RMK A01 T10161055  RH  075%=      5-min Rain = 0
KPVS 171029Z 33006KT M02/M06 A3011 RMK A01 T10161056  RH  074%=      5-min Rain = 0
KPVS 171030Z 33006KT M02/M06 A3011 RMK A01 T10161056  RH  074%=      5-min Rain = 0
KPVS 171031Z 33005KT M02/M06 A3011 RMK A01 T10151055  RH  074%=      5-min Rain = 0
KPVS 171032Z 32005KT M02/M06 A3011 RMK A01 T10151055  RH  074%=      5-min Rain = 0
KPVS 171033Z 33005KT M02/M06 A3011 RMK A01 T10151055  RH  074%=      5-min Rain = 0
KPVS 171034Z 33005KT M02/M06 A3011 RMK A01 T10151056  RH  074%=      5-min Rain = 0
KPVS 171035Z 32006KT M02/M06 A3011 RMK A01 T10151056  RH  074%=      5-min Rain = 0
KPVS 171036Z 32005KT M02/M06 A3011 RMK A01 T10151056  RH  074%=      5-min Rain = 0
KPVS 171037Z 33005KT M02/M06 A3011 RMK A01 T10161056  RH  074%=      5-min Rain = 0
KPVS 171038Z 32005KT M02/M06 A3011 RMK A01 T10161057  RH  074%=      5-min Rain = 0
KPVS 171039Z 33005KT M02/M06 A3011 RMK A01 T10161057  RH  074%=      5-min Rain = 0
KPVS 171040Z 32005KT M02/M06 A3011 RMK A01 T10171057  RH  074%=      5-min Rain = 0
KPVS 171041Z 32006KT M02/M06 A3011 RMK A01 T10181058  RH  074%=      5-min Rain = 0
KPVS 171042Z 32006KT M02/M06 A3011 RMK A01 T10181058  RH  074%=      5-min Rain = 0
KPVS 171043Z 32006KT M02/M06 A3011 RMK A01 T10191058  RH  074%=      5-min Rain = 0
KPVS 171044Z 32006KT M02/M06 A3011 RMK A01 T10191058  RH  075%=      5-min Rain = 0
KPVS 171045Z 32005KT M02/M06 A3011 RMK A01 T10191057  RH  075%=      5-min Rain = 0
KPVS 171046Z 32005KT M02/M06 A3011 RMK A01 T10191058  RH  075%=      5-min Rain = 0
KPVS 171047Z 32005KT M02/M06 A3011 RMK A01 T10191058  RH  075%=      5-min Rain = 0
KPVS 171048Z 32005KT M02/M06 A3011 RMK A01 T10191058  RH  075%=      5-min Rain = 0
KPVS 171049Z 32005KT M02/M06 A3011 RMK A01 T10201058  RH  075%=      5-min Rain = 0
KPVS 171050Z 32006KT M02/M06 A3011 RMK A01 T10201058  RH  075%=      5-min Rain = 0
KPVS 171051Z 32005KT M02/M06 A3011 RMK A01 T10201057  RH  076%=      5-min Rain = 0
KPVS 171052Z 32005KT M02/M06 A3011 RMK A01 T10201058  RH  075%=      5-min Rain = 0
KPVS 171053Z 32005KT M02/M06 A3011 RMK A01 T10201058  RH  075%=      5-min Rain = 0
KPVS 171054Z 32005KT M02/M06 A3011 RMK A01 T10211058  RH  076%=      5-min Rain = 0
KPVS 171055Z 32005KT M02/M06 A3012 RMK A01 T10211058  RH  076%=      5-min Rain = 0
KPVS 171056Z 32005KT M02/M06 A3012 RMK A01 T10211058  RH  075%=      5-min Rain = 0
KPVS 171057Z 32005KT M02/M06 A3012 RMK A01 T10211059  RH  075%=      5-min Rain = 0
KPVS 171058Z 32005KT M02/M06 A3012 RMK A01 T10211058  RH  076%=      5-min Rain = 0
KPVS 171059Z 32006KT M02/M06 A3012 RMK A01 T10211059  RH  076%=      5-min Rain = 0
KPVS 171100Z 32006KT M02/M06 A3012 RMK A01 T10211059  RH  076%=      5-min Rain = 0
KPVS 171101Z 32006KT M02/M06 A3012 RMK A01 T10211059  RH  076%=      5-min Rain = 0
KPVS 171102Z 33006KT M02/M06 A3012 RMK A01 T10211058  RH  076%=      5-min Rain = 0
KPVS 171103Z 33005KT M02/M06 A3012 RMK A01 T10211059  RH  075%=      5-min Rain = 0
KPVS 171104Z 33005KT M02/M06 A3012 RMK A01 T10211059  RH  075%=      5-min Rain = 0
KPVS 171105Z 33004KT M02/M06 A3012 RMK A01 T10211059  RH  075%=      5-min Rain = 0
KPVS 171106Z 33006KT M02/M06 A3012 RMK A01 T10211059  RH  075%=      5-min Rain = 0
KPVS 171107Z 33006KT M02/M06 A3012 RMK A01 T10201059  RH  075%=      5-min Rain = 0
KPVS 171108Z 33006KT M02/M06 A3012 RMK A01 T10201060  RH  074%=      5-min Rain = 0
KPVS 171109Z 33007KT M02/M06 A3012 RMK A01 T10201060  RH  074%=      5-min Rain = 0
KPVS 171110Z 33006KT M02/M06 A3012 RMK A01 T10201060  RH  074%=      5-min Rain = 0
KPVS 171111Z 33007KT M02/M06 A3012 RMK A01 T10201060  RH  074%=      5-min Rain = 0
KPVS 171112Z 33006KT M02/M06 A3012 RMK A01 T10211060  RH  074%=      5-min Rain = 0
KPVS 171113Z 33006KT M02/M06 A3012 RMK A01 T10211060  RH  074%=      5-min Rain = 0
KPVS 171114Z 34005KT M02/M06 A3012 RMK A01 T10211060  RH  074%=      5-min Rain = 0
KPVS 171115Z 33006KT M02/M06 A3012 RMK A01 T10221061  RH  075%=      5-min Rain = 0
KPVS 171116Z 33007KT M02/M06 A3012 RMK A01 T10221060  RH  075%=      5-min Rain = 0
KPVS 171117Z 34006KT M02/M06 A3012 RMK A01 T10211060  RH  075%=      5-min Rain = 0
KPVS 171118Z 33006KT M02/M06 A3012 RMK A01 T10211060  RH  075%=      5-min Rain = 0
KPVS 171119Z 33006KT M02/M06 A3012 RMK A01 T10211060  RH  074%=      5-min Rain = 0
KPVS 171120Z 33006KT M02/M06 A3012 RMK A01 T10211060  RH  074%=      5-min Rain = 0
KPVS 171121Z 33006KT M02/M06 A3012 RMK A01 T10211060  RH  074%=      5-min Rain = 0
KPVS 171122Z 34006KT M02/M06 A3012 RMK A01 T10201060  RH  074%=      5-min Rain = 0
KPVS 171123Z 33006KT M02/M06 A3012 RMK A01 T10201060  RH  074%=      5-min Rain = 0
KPVS 171124Z 34005KT M02/M06 A3012 RMK A01 T10201060  RH  074%=      5-min Rain = 0
KPVS 171125Z 34007KT M02/M06 A3012 RMK A01 T10201060  RH  074%=      5-min Rain = 0
KPVS 171126Z 34006KT M02/M06 A3012 RMK A01 T10201061  RH  074%=      5-min Rain = 0
KPVS 171127Z 33006KT M02/M06 A3012 RMK A01 T10201061  RH  074%=      5-min Rain = 0
KPVS 171128Z 33005KT M02/M06 A3012 RMK A01 T10201061  RH  074%=      5-min Rain = 0
KPVS 171129Z 34006KT M02/M06 A3012 RMK A01 T10201061  RH  073%=      5-min Rain = 0
KPVS 171130Z 34006KT M02/M06 A3012 RMK A01 T10201061  RH  073%=      5-min Rain = 0
KPVS 171131Z 34006KT M02/M06 A3012 RMK A01 T10191061  RH  073%=      5-min Rain = 0
KPVS 171132Z 33006KT M02/M06 A3012 RMK A01 T10191061  RH  073%=      5-min Rain = 0
KPVS 171133Z 33006KT M02/M06 A3012 RMK A01 T10181061  RH  072%=      5-min Rain = 0
KPVS 171134Z 34005KT M02/M06 A3012 RMK A01 T10181062  RH  072%=      5-min Rain = 0
KPVS 171135Z 34005KT M02/M06 A3012 RMK A01 T10191063  RH  072%=      5-min Rain = 0
KPVS 171136Z 34006KT M02/M06 A3012 RMK A01 T10191063  RH  072%=      5-min Rain = 0
KPVS 171137Z 34006KT M02/M06 A3012 RMK A01 T10201063  RH  072%=      5-min Rain = 0
KPVS 171138Z 34006KT M02/M06 A3012 RMK A01 T10201063  RH  073%=      5-min Rain = 0
KPVS 171139Z 34006KT M02/M06 A3012 RMK A01 T10201063  RH  073%=      5-min Rain = 0
KPVS 171140Z 34006KT M02/M06 A3012 RMK A01 T10201063  RH  072%=      5-min Rain = 0
KPVS 171141Z 34006KT M02/M06 A3012 RMK A01 T10201063  RH  072%=      5-min Rain = 0
KPVS 171142Z 34006KT M02/M06 A3012 RMK A01 T10201063  RH  072%=      5-min Rain = 0
KPVS 171143Z 34006KT M02/M06 A3012 RMK A01 T10191063  RH  072%=      5-min Rain = 0
KPVS 171144Z 34006KT M02/M06 A3012 RMK A01 T10191063  RH  072%=      5-min Rain = 0
KPVS 171145Z 35005KT M02/M06 A3012 RMK A01 T10181063  RH  071%=      5-min Rain = 0
KPVS 171146Z 35005KT M02/M06 A3012 RMK A01 T10181064  RH  071%=      5-min Rain = 0
KPVS 171147Z 35005KT M02/M06 A3012 RMK A01 T10181064  RH  071%=      5-min Rain = 0
KPVS 171148Z 35004KT M02/M06 A3012 RMK A01 T10181064  RH  071%=      5-min Rain = 0
KPVS 171149Z 35004KT M02/M07 A3012 RMK A01 T10181065  RH  071%=      5-min Rain = 0
KPVS 171150Z 35004KT M02/M07 A3012 RMK A01 T10191065  RH  071%=      5-min Rain = 0
KPVS 171151Z 35005KT M02/M07 A3012 RMK A01 T10191065  RH  071%=      5-min Rain = 0
KPVS 171152Z 35005KT M02/M07 A3012 RMK A01 T10201065  RH  071%=      5-min Rain = 0
KPVS 171153Z 34005KT M02/M07 A3012 RMK A01 T10201065  RH  071%=      5-min Rain = 0
KPVS 171154Z 34005KT M02/M07 A3012 RMK A01 T10191065  RH  071%=      5-min Rain = 0
KPVS 171155Z 34005KT M02/M07 A3012 RMK A01 T10191065  RH  071%=      5-min Rain = 0
KPVS 171156Z 34006KT M02/M07 A3012 RMK A01 T10191065  RH  071%=      5-min Rain = 0
KPVS 171157Z 34006KT M02/M07 A3012 RMK A01 T10191066  RH  071%=      5-min Rain = 0
KPVS 171158Z 34006KT M02/M07 A3012 RMK A01 T10191066  RH  071%=      5-min Rain = 0
KPVS 171159Z 34006KT M02/M07 A3012 RMK A01 T10191066  RH  070%=      5-min Rain = 0
KPVS 171200Z 34006KT M02/M07 A3012 RMK A01 T10191066  RH  071%=      5-min Rain = 0
KPVS 171201Z 34006KT M02/M07 A3012 RMK A01 T10191066  RH  071%=      5-min Rain = 0
KPVS 171202Z 34006KT M02/M07 A3012 RMK A01 T10201066  RH  071%=      5-min Rain = 0
KPVS 171203Z 34006KT M02/M07 A3012 RMK A01 T10201066  RH  071%=      5-min Rain = 0
KPVS 171204Z 34006KT M02/M07 A3012 RMK A01 T10201066  RH  071%=      5-min Rain = 0
KPVS 171205Z 34005KT M02/M07 A3012 RMK A01 T10201066  RH  071%=      5-min Rain = 0
KPVS 171206Z 35005KT M02/M07 A3012 RMK A01 T10211066  RH  071%=      5-min Rain = 0
KPVS 171207Z 35005KT M02/M07 A3012 RMK A01 T10211066  RH  071%=      5-min Rain = 0
KPVS 171208Z 35005KT M02/M07 A3012 RMK A01 T10221066  RH  071%=      5-min Rain = 0
KPVS 171209Z 35005KT M02/M07 A3012 RMK A01 T10221066  RH  072%=      5-min Rain = 0
KPVS 171210Z 34005KT M02/M07 A3012 RMK A01 T10221066  RH  072%=      5-min Rain = 0
KPVS 171211Z 34005KT M02/M07 A3012 RMK A01 T10211066  RH  071%=      5-min Rain = 0
KPVS 171212Z 34005KT M02/M07 A3012 RMK A01 T10211066  RH  071%=      5-min Rain = 0
KPVS 171213Z 35005KT M02/M07 A3012 RMK A01 T10211067  RH  071%=      5-min Rain = 0
KPVS 171214Z 34005KT M02/M07 A3013 RMK A01 T10221067  RH  071%=      5-min Rain = 0
KPVS 171215Z 34006KT M02/M07 A3013 RMK A01 T10221067  RH  071%=      5-min Rain = 0
KPVS 171216Z 34006KT M02/M07 A3013 RMK A01 T10221067  RH  071%=      5-min Rain = 0
KPVS 171217Z 34006KT M02/M07 A3013 RMK A01 T10221067  RH  071%=      5-min Rain = 0
KPVS 171218Z 34006KT M02/M07 A3013 RMK A01 T10221067  RH  071%=      5-min Rain = 0
KPVS 171219Z 34006KT M02/M07 A3013 RMK A01 T10221068  RH  071%=      5-min Rain = 0
KPVS 171220Z 35006KT M02/M07 A3013 RMK A01 T10221068  RH  071%=      5-min Rain = 0
KPVS 171221Z 35006KT M02/M07 A3013 RMK A01 T10221068  RH  071%=      5-min Rain = 0
KPVS 171222Z 35006KT M02/M07 A3013 RMK A01 T10221068  RH  071%=      5-min Rain = 0
KPVS 171223Z 34006KT M02/M07 A3013 RMK A01 T10221068  RH  071%=      5-min Rain = 0
KPVS 171224Z 34006KT M02/M07 A3013 RMK A01 T10211068  RH  070%=      5-min Rain = 0
KPVS 171225Z 34006KT M02/M07 A3013 RMK A01 T10211068  RH  070%=      5-min Rain = 0
KPVS 171226Z 34007KT M02/M07 A3013 RMK A01 T10211069  RH  070%=      5-min Rain = 0
KPVS 171227Z 34006KT M02/M07 A3013 RMK A01 T10211069  RH  070%=      5-min Rain = 0
KPVS 171228Z 35006KT M02/M07 A3013 RMK A01 T10211069  RH  070%=      5-min Rain = 0
KPVS 171229Z 34006KT M02/M07 A3013 RMK A01 T10221069  RH  070%=      5-min Rain = 0
KPVS 171230Z 35006KT M02/M07 A3013 RMK A01 T10221069  RH  070%=      5-min Rain = 0
KPVS 171231Z 34006KT M02/M07 A3013 RMK A01 T10211069  RH  070%=      5-min Rain = 0
KPVS 171232Z 35006KT M02/M07 A3013 RMK A01 T10201069  RH  069%=      5-min Rain = 0
KPVS 171233Z 34006KT M02/M07 A3013 RMK A01 T10201069  RH  069%=      5-min Rain = 0
KPVS 171234Z 34006KT M02/M07 A3013 RMK A01 T10191069  RH  069%=      5-min Rain = 0
KPVS 171235Z 34006KT M02/M07 A3013 RMK A01 T10191069  RH  069%=      5-min Rain = 0
KPVS 171236Z 34006KT M02/M07 A3014 RMK A01 T10191069  RH  069%=      5-min Rain = 0
KPVS 171237Z 34006KT M02/M07 A3014 RMK A01 T10191069  RH  069%=      5-min Rain = 0
KPVS 171238Z 34006KT M02/M07 A3014 RMK A01 T10191069  RH  069%=      5-min Rain = 0
KPVS 171239Z 34006KT M02/M07 A3014 RMK A01 T10201070  RH  069%=      5-min Rain = 0
KPVS 171240Z 34006KT M02/M07 A3014 RMK A01 T10201070  RH  069%=      5-min Rain = 0
KPVS 171241Z 34006KT M02/M07 A3014 RMK A01 T10201069  RH  069%=      5-min Rain = 0
KPVS 171242Z 34007KT M02/M07 A3014 RMK A01 T10201069  RH  069%=      5-min Rain = 0
KPVS 171243Z 34006KT M02/M07 A3014 RMK A01 T10201069  RH  069%=      5-min Rain = 0
KPVS 171244Z 34006KT M02/M07 A3014 RMK A01 T10201070  RH  069%=      5-min Rain = 0
KPVS 171245Z 34007KT M02/M07 A3014 RMK A01 T10211070  RH  069%=      5-min Rain = 0
KPVS 171246Z 34006KT M02/M07 A3014 RMK A01 T10211070  RH  069%=      5-min Rain = 0
KPVS 171247Z 34006KT M02/M07 A3014 RMK A01 T10211070  RH  069%=      5-min Rain = 0
KPVS 171248Z 34007KT M02/M07 A3014 RMK A01 T10211070  RH  069%=      5-min Rain = 0
KPVS 171249Z 34006KT M02/M07 A3014 RMK A01 T10211070  RH  069%=      5-min Rain = 0
KPVS 171250Z 34006KT M02/M07 A3015 RMK A01 T10211070  RH  069%=      5-min Rain = 0
KPVS 171251Z 34006KT M02/M07 A3015 RMK A01 T10211070  RH  069%=      5-min Rain = 0
KPVS 171252Z 34006KT M02/M07 A3015 RMK A01 T10211070  RH  069%=      5-min Rain = 0
KPVS 171253Z 34006KT M02/M07 A3015 RMK A01 T10211070  RH  069%=      5-min Rain = 0
KPVS 171254Z 34007KT M02/M07 A3015 RMK A01 T10211070  RH  069%=      5-min Rain = 0
KPVS 171255Z 34006KT M02/M07 A3015 RMK A01 T10211070  RH  069%=      5-min Rain = 0
KPVS 171256Z 34006KT M02/M07 A3015 RMK A01 T10211070  RH  069%=      5-min Rain = 0
KPVS 171257Z 35007KT M02/M07 A3015 RMK A01 T10211070  RH  069%=      5-min Rain = 0
KPVS 171258Z 34006KT M02/M07 A3015 RMK A01 T10211070  RH  069%=      5-min Rain = 0
KPVS 171259Z 35006KT M02/M07 A3015 RMK A01 T10211070  RH  069%=      5-min Rain = 0
KPVS 171300Z 34006KT M02/M07 A3015 RMK A01 T10201070  RH  069%=      5-min Rain = 0
KPVS 171301Z 34006KT M02/M07 A3015 RMK A01 T10201070  RH  069%=      5-min Rain = 0
KPVS 171302Z 35006KT M02/M07 A3015 RMK A01 T10201070  RH  069%=      5-min Rain = 0
KPVS 171303Z 35006KT M02/M07 A3015 RMK A01 T10201070  RH  069%=      5-min Rain = 0
KPVS 171304Z 35006KT M02/M07 A3015 RMK A01 T10201070  RH  069%=      5-min Rain = 0
KPVS 171305Z 35006KT M02/M07 A3015 RMK A01 T10211070  RH  069%=      5-min Rain = 0
KPVS 171306Z 34006KT M02/M07 A3015 RMK A01 T10211070  RH  069%=      5-min Rain = 0
KPVS 171307Z 34005KT M02/M07 A3015 RMK A01 T10211070  RH  069%=      5-min Rain = 0
KPVS 171308Z 34006KT M02/M07 A3015 RMK A01 T10211070  RH  069%=      5-min Rain = 0
KPVS 171309Z 35006KT M02/M07 A3015 RMK A01 T10211070  RH  069%=      5-min Rain = 0
KPVS 171310Z 35006KT M02/M07 A3015 RMK A01 T10211070  RH  069%=      5-min Rain = 0
KPVS 171311Z 35006KT M02/M07 A3015 RMK A01 T10211070  RH  069%=      5-min Rain = 0
KPVS 171312Z 35006KT M02/M07 A3015 RMK A01 T10221071  RH  069%=      5-min Rain = 0
KPVS 171313Z 35006KT M02/M07 A3015 RMK A01 T10221071  RH  069%=      5-min Rain = 0
KPVS 171314Z 35006KT M02/M07 A3015 RMK A01 T10221071  RH  069%=      5-min Rain = 0
KPVS 171315Z 35006KT M02/M07 A3015 RMK A01 T10231071  RH  070%=      5-min Rain = 0
KPVS 171316Z 35006KT M02/M07 A3015 RMK A01 T10231071  RH  070%=      5-min Rain = 0
KPVS 171317Z 35006KT M02/M07 A3015 RMK A01 T10241071  RH  070%=      5-min Rain = 0
KPVS 171318Z 35006KT M02/M07 A3015 RMK A01 T10241071  RH  070%=      5-min Rain = 0
KPVS 171319Z 35006KT M02/M07 A3015 RMK A01 T10241071  RH  070%=      5-min Rain = 0
KPVS 171320Z 35006KT M02/M07 A3015 RMK A01 T10241071  RH  070%=      5-min Rain = 0
KPVS 171321Z 35006KT M02/M07 A3015 RMK A01 T10231071  RH  070%=      5-min Rain = 0
KPVS 171322Z 35006KT M02/M07 A3015 RMK A01 T10231071  RH  070%=      5-min Rain = 0
KPVS 171323Z 35006KT M02/M07 A3015 RMK A01 T10231071  RH  070%=      5-min Rain = 0
KPVS 171324Z 35006KT M02/M07 A3015 RMK A01 T10231071  RH  070%=      5-min Rain = 0
KPVS 171325Z 35006KT M02/M07 A3015 RMK A01 T10231071  RH  070%=      5-min Rain = 0
KPVS 171326Z 35006KT M02/M07 A3015 RMK A01 T10231071  RH  070%=      5-min Rain = 0
KPVS 171327Z 35006KT M02/M07 A3015 RMK A01 T10231071  RH  070%=      5-min Rain = 0
KPVS 171328Z 35006KT M02/M07 A3015 RMK A01 T10231071  RH  070%=      5-min Rain = 0
KPVS 171329Z 35006KT M02/M07 A3015 RMK A01 T10231071  RH  070%=      5-min Rain = 0
KPVS 171330Z 35006KT M02/M07 A3015 RMK A01 T10231071  RH  070%=      5-min Rain = 0
KPVS 171331Z 35006KT M02/M07 A3015 RMK A01 T10231071  RH  070%=      5-min Rain = 0
KPVS 171332Z 35006KT M02/M07 A3015 RMK A01 T10231071  RH  070%=      5-min Rain = 0
KPVS 171333Z 35006KT M02/M07 A3015 RMK A01 T10221071  RH  069%=      5-min Rain = 0
KPVS 171334Z 36006KT M02/M07 A3015 RMK A01 T10221071  RH  069%=      5-min Rain = 0
KPVS 171335Z 35006KT M02/M07 A3015 RMK A01 T10211070  RH  069%=      5-min Rain = 0
KPVS 171336Z 35006KT M02/M07 A3015 RMK A01 T10211071  RH  069%=      5-min Rain = 0
KPVS 171337Z 35006KT M02/M07 A3015 RMK A01 T10211071  RH  069%=      5-min Rain = 0
KPVS 171338Z 35005KT M02/M07 A3015 RMK A01 T10211071  RH  069%=      5-min Rain = 0
KPVS 171339Z 36006KT M02/M07 A3015 RMK A01 T10211071  RH  068%=      5-min Rain = 0
KPVS 171340Z 36006KT M02/M07 A3015 RMK A01 T10211071  RH  068%=      5-min Rain = 0
KPVS 171341Z 35005KT M02/M07 A3015 RMK A01 T10201071  RH  068%=      5-min Rain = 0
KPVS 171342Z 35006KT M02/M07 A3015 RMK A01 T10201071  RH  068%=      5-min Rain = 0
KPVS 171343Z 35006KT M02/M07 A3015 RMK A01 T10211071  RH  068%=      5-min Rain = 0
KPVS 171344Z 35006KT M02/M07 A3015 RMK A01 T10201071  RH  068%=      5-min Rain = 0
KPVS 171345Z 35006KT M02/M07 A3016 RMK A01 T10201071  RH  068%=      5-min Rain = 0
KPVS 171346Z 35006KT M02/M07 A3016 RMK A01 T10201071  RH  068%=      5-min Rain = 0
KPVS 171347Z 35007KT M02/M07 A3016 RMK A01 T10201071  RH  068%=      5-min Rain = 0
KPVS 171348Z 35007KT M02/M07 A3016 RMK A01 T10201071  RH  068%=      5-min Rain = 0
KPVS 171349Z 35007KT M02/M07 A3016 RMK A01 T10201071  RH  068%=      5-min Rain = 0
KPVS 171350Z 35007KT M02/M07 A3016 RMK A01 T10191071  RH  068%=      5-min Rain = 0
KPVS 171351Z 35008KT M02/M07 A3016 RMK A01 T10181071  RH  067%=      5-min Rain = 0
KPVS 171352Z 35007KT M02/M07 A3016 RMK A01 T10181071  RH  067%=      5-min Rain = 0
KPVS 171353Z 35007KT M02/M07 A3016 RMK A01 T10171071  RH  067%=      5-min Rain = 0
KPVS 171354Z 34006KT M02/M07 A3016 RMK A01 T10171071  RH  067%=      5-min Rain = 0
KPVS 171355Z 35006KT M02/M07 A3016 RMK A01 T10171071  RH  066%=      5-min Rain = 0
KPVS 171356Z 35006KT M02/M07 A3016 RMK A01 T10171071  RH  066%=      5-min Rain = 0
KPVS 171357Z 35006KT M02/M07 A3016 RMK A01 T10171072  RH  066%=      5-min Rain = 0
KPVS 171358Z 35006KT M02/M07 A3016 RMK A01 T10171072  RH  066%=      5-min Rain = 0
KPVS 171359Z 35006KT M02/M07 A3016 RMK A01 T10181072  RH  067%=      5-min Rain = 0
KPVS 171400Z 35006KT M02/M07 A3016 RMK A01 T10181072  RH  067%=      5-min Rain = 0
KPVS 171401Z 35006KT M02/M07 A3016 RMK A01 T10181072  RH  067%=      5-min Rain = 0
KPVS 171402Z 34006KT M02/M07 A3016 RMK A01 T10181072  RH  067%=      5-min Rain = 0
KPVS 171403Z 35006KT M02/M07 A3016 RMK A01 T10181072  RH  067%=      5-min Rain = 0
KPVS 171404Z 35006KT M02/M07 A3016 RMK A01 T10181072  RH  067%=      5-min Rain = 0
KPVS 171405Z 35005KT M02/M07 A3016 RMK A01 T10181072  RH  067%=      5-min Rain = 0
KPVS 171406Z 35005KT M02/M07 A3016 RMK A01 T10181072  RH  067%=      5-min Rain = 0
KPVS 171407Z 35005KT M02/M07 A3016 RMK A01 T10181072  RH  067%=      5-min Rain = 0
KPVS 171408Z 35006KT M02/M07 A3016 RMK A01 T10181072  RH  067%=      5-min Rain = 0
KPVS 171409Z 35005KT M02/M07 A3016 RMK A01 T10181072  RH  067%=      5-min Rain = 0
KPVS 171410Z 35005KT M02/M07 A3016 RMK A01 T10181071  RH  067%=      5-min Rain = 0
KPVS 171411Z 35005KT M02/M07 A3017 RMK A01 T10181071  RH  067%=      5-min Rain = 0
KPVS 171412Z 35005KT M02/M07 A3016 RMK A01 T10181071  RH  067%=      5-min Rain = 0
KPVS 171413Z 36006KT M02/M07 A3016 RMK A01 T10181071  RH  067%=      5-min Rain = 0
KPVS 171414Z 35006KT M02/M07 A3016 RMK A01 T10181071  RH  067%=      5-min Rain = 0
KPVS 171415Z 35006KT M02/M07 A3017 RMK A01 T10171071  RH  067%=      5-min Rain = 0
KPVS 171416Z 35005KT M02/M07 A3017 RMK A01 T10161071  RH  066%=      5-min Rain = 0
KPVS 171417Z 35005KT M02/M07 A3017 RMK A01 T10161071  RH  066%=      5-min Rain = 0
KPVS 171418Z 35005KT M02/M07 A3017 RMK A01 T10161070  RH  066%=      5-min Rain = 0
KPVS 171419Z 35006KT M02/M07 A3017 RMK A01 T10161071  RH  066%=      5-min Rain = 0
KPVS 171420Z 36005KT M02/M07 A3017 RMK A01 T10161071  RH  066%=      5-min Rain = 0
KPVS 171421Z 35005KT M02/M07 A3017 RMK A01 T10161070  RH  066%=      5-min Rain = 0
KPVS 171422Z 36005KT M02/M07 A3017 RMK A01 T10161070  RH  066%=      5-min Rain = 0
KPVS 171423Z 35005KT M02/M07 A3017 RMK A01 T10161071  RH  066%=      5-min Rain = 0
KPVS 171424Z 35005KT M02/M07 A3017 RMK A01 T10161071  RH  066%=      5-min Rain = 0
KPVS 171425Z 35005KT M02/M07 A3017 RMK A01 T10161071  RH  066%=      5-min Rain = 0
KPVS 171426Z 35004KT M02/M07 A3017 RMK A01 T10151071  RH  066%=      5-min Rain = 0
KPVS 171427Z 35004KT M02/M07 A3017 RMK A01 T10151071  RH  066%=      5-min Rain = 0
KPVS 171428Z 35004KT M02/M07 A3017 RMK A01 T10151071  RH  066%=      5-min Rain = 0
KPVS 171429Z 35004KT M02/M07 A3017 RMK A01 T10161071  RH  066%=      5-min Rain = 0
KPVS 171430Z 35004KT M02/M07 A3017 RMK A01 T10161071  RH  066%=      5-min Rain = 0
KPVS 171431Z 35004KT M02/M07 A3017 RMK A01 T10161071  RH  066%=      5-min Rain = 0
KPVS 171432Z 35004KT M02/M07 A3017 RMK A01 T10161071  RH  066%=      5-min Rain = 0
KPVS 171433Z 35005KT M02/M07 A3017 RMK A01 T10161071  RH  066%=      5-min Rain = 0
KPVS 171434Z 35005KT M02/M07 A3017 RMK A01 T10161071  RH  066%=      5-min Rain = 0
KPVS 171435Z 35005KT M02/M07 A3017 RMK A01 T10161071  RH  066%=      5-min Rain = 0
KPVS 171436Z 35004KT M02/M07 A3017 RMK A01 T10161071  RH  066%=      5-min Rain = 0
KPVS 171437Z 35004KT M02/M07 A3017 RMK A01 T10151071  RH  066%=      5-min Rain = 0
KPVS 171438Z 35005KT M02/M07 A3017 RMK A01 T10151071  RH  066%=      5-min Rain = 0
KPVS 171439Z 35005KT M02/M07 A3017 RMK A01 T10151071  RH  066%=      5-min Rain = 0
KPVS 171440Z 35004KT M01/M07 A3017 RMK A01 T10141070  RH  066%=      5-min Rain = 0
KPVS 171441Z 35005KT M01/M07 A3017 RMK A01 T10141070  RH  066%=      5-min Rain = 0
KPVS 171442Z 35004KT M01/M07 A3017 RMK A01 T10131069  RH  066%=      5-min Rain = 0
KPVS 171443Z 35004KT M01/M07 A3017 RMK A01 T10131070  RH  065%=      5-min Rain = 0
KPVS 171444Z 36004KT M01/M07 A3017 RMK A01 T10131069  RH  066%=      5-min Rain = 0
KPVS 171445Z 36005KT M01/M07 A3017 RMK A01 T10131069  RH  066%=      5-min Rain = 0
KPVS 171446Z 36004KT M01/M07 A3017 RMK A01 T10121068  RH  066%=      5-min Rain = 0
KPVS 171447Z 36004KT M01/M07 A3017 RMK A01 T10121067  RH  066%=      5-min Rain = 0
KPVS 171448Z 36005KT M01/M07 A3017 RMK A01 T10111067  RH  065%=      5-min Rain = 0
KPVS 171449Z 36005KT M01/M07 A3017 RMK A01 T10101067  RH  065%=      5-min Rain = 0
KPVS 171450Z 36004KT M01/M07 A3017 RMK A01 T10091066  RH  065%=      5-min Rain = 0
KPVS 171451Z 00004KT M01/M07 A3017 RMK A01 T10081067  RH  064%=      5-min Rain = 0
KPVS 171452Z 35004KT M01/M07 A3017 RMK A01 T10071066  RH  064%=      5-min Rain = 0
KPVS 171453Z 36004KT M01/M07 A3017 RMK A01 T10061065  RH  064%=      5-min Rain = 0
KPVS 171454Z 36003KT M01/M07 A3017 RMK A01 T10051066  RH  063%=      5-min Rain = 0
KPVS 171455Z 36004KT M00/M07 A3017 RMK A01 T10041065  RH  063%=      5-min Rain = 0
KPVS 171456Z 36003KT M00/M06 A3017 RMK A01 T10031064  RH  064%=      5-min Rain = 0
KPVS 171457Z 35003KT M00/M06 A3017 RMK A01 T10021063  RH  063%=      5-min Rain = 0
KPVS 171458Z 34002KT M00/M06 A3017 RMK A01 T10011063  RH  063%=      5-min Rain = 0
KPVS 171459Z 34002KT M00/M06 A3017 RMK A01 T10011063  RH  063%=      5-min Rain = 0
KPVS 171500Z 35003KT M00/M06 A3017 RMK A01 T10011064  RH  062%=      5-min Rain = 0
KPVS 171501Z 35003KT M00/M06 A3017 RMK A01 T10011064  RH  063%=      5-min Rain = 0
KPVS 171502Z 36003KT M00/M06 A3017 RMK A01 T10011062  RH  063%=      5-min Rain = 0
KPVS 171503Z 36004KT 00/06 A3017 RMK A01 T00-00-64  RH  062%=      5-min Rain = 0
KPVS 171504Z 35004KT 00/M06 A3017 RMK A01 T00011062  RH  063%=      5-min Rain = 0
KPVS 171505Z 36004KT 00/M06 A3018 RMK A01 T00011062  RH  062%=      5-min Rain = 0
KPVS 171506Z 36004KT 00/M06 A3018 RMK A01 T00021063  RH  062%=      5-min Rain = 0
KPVS 171507Z 35003KT 00/M06 A3018 RMK A01 T00031064  RH  061%=      5-min Rain = 0
KPVS 171508Z 35004KT 00/M06 A3018 RMK A01 T00031064  RH  061%=      5-min Rain = 0
KPVS 171509Z 35003KT 00/M06 A3018 RMK A01 T00041064  RH  061%=      5-min Rain = 0
KPVS 171510Z 35003KT 00/M06 A3018 RMK A01 T00041063  RH  061%=      5-min Rain = 0
KPVS 171511Z 36003KT 00/M06 A3018 RMK A01 T00041062  RH  061%=      5-min Rain = 0
KPVS 171512Z 35004KT 00/M06 A3018 RMK A01 T00041062  RH  061%=      5-min Rain = 0
KPVS 171513Z 35004KT 01/M06 A3018 RMK A01 T00051063  RH  060%=      5-min Rain = 0
KPVS 171514Z 35004KT 01/M06 A3018 RMK A01 T00061063  RH  060%=      5-min Rain = 0
KPVS 171515Z 35003KT 01/M06 A3018 RMK A01 T00061063  RH  060%=      5-min Rain = 0
KPVS 171516Z 35004KT 01/M06 A3018 RMK A01 T00061063  RH  060%=      5-min Rain = 0
KPVS 171517Z 36004KT 01/M06 A3018 RMK A01 T00071063  RH  059%=      5-min Rain = 0
KPVS 171518Z 36004KT 01/M06 A3018 RMK A01 T00081062  RH  060%=      5-min Rain = 0
KPVS 171519Z 36004KT 01/M06 A3018 RMK A01 T00091063  RH  059%=      5-min Rain = 0
KPVS 171520Z 36004KT 01/M06 A3018 RMK A01 T00091062  RH  059%=      5-min Rain = 0
KPVS 171521Z 36004KT 01/M06 A3018 RMK A01 T00101063  RH  058%=      5-min Rain = 0
KPVS 171522Z 36005KT 01/M06 A3018 RMK A01 T00111061  RH  059%=      5-min Rain = 0
KPVS 171523Z 36005KT 01/M06 A3018 RMK A01 T00121062  RH  058%=      5-min Rain = 0
KPVS 171524Z 36005KT 01/M06 A3018 RMK A01 T00131064  RH  057%=      5-min Rain = 0
KPVS 171525Z 00004KT 01/M06 A3018 RMK A01 T00131064  RH  057%=      5-min Rain = 0
KPVS 171526Z 35003KT 01/M06 A3018 RMK A01 T00141062  RH  057%=      5-min Rain = 0
KPVS 171527Z 00004KT 02/M06 A3018 RMK A01 T00151060  RH  057%=      5-min Rain = 0
KPVS 171528Z 01005KT 02/M06 A3018 RMK A01 T00161061  RH  056%=      5-min Rain = 0
KPVS 171529Z 00005KT 02/M06 A3018 RMK A01 T00171061  RH  056%=      5-min Rain = 0
KPVS 171530Z 00004KT 02/M06 A3019 RMK A01 T00181061  RH  056%=      5-min Rain = 0
KPVS 171531Z 00004KT 02/M06 A3018 RMK A01 T00191060  RH  056%=      5-min Rain = 0
KPVS 171532Z 01006KT 02/M06 A3018 RMK A01 T00201062  RH  055%=      5-min Rain = 0
KPVS 171533Z 01005KT 02/M06 A3018 RMK A01 T00211062  RH  054%=      5-min Rain = 0
KPVS 171534Z 01005KT 02/M06 A3019 RMK A01 T00221058  RH  055%=      5-min Rain = 0
KPVS 171535Z 01006KT 02/M06 A3019 RMK A01 T00241058  RH  054%=      5-min Rain = 0
KPVS 171536Z 01005KT 02/M06 A3019 RMK A01 T00241063  RH  053%=      5-min Rain = 0
KPVS 171537Z 01005KT 02/M06 A3019 RMK A01 T00231064  RH  052%=      5-min Rain = 0
KPVS 171538Z 01004KT 02/M06 A3019 RMK A01 T00241062  RH  053%=      5-min Rain = 0
KPVS 171539Z 01006KT 03/M06 A3019 RMK A01 T00251061  RH  053%=      5-min Rain = 0
KPVS 171540Z 01006KT 03/M06 A3019 RMK A01 T00261062  RH  052%=      5-min Rain = 0
KPVS 171541Z 00006KT 03/M06 A3019 RMK A01 T00261062  RH  052%=      5-min Rain = 0
KPVS 171542Z 01006KT 03/M06 A3019 RMK A01 T00261060  RH  053%=      5-min Rain = 0
KPVS 171543Z 01005KT 03/M06 A3019 RMK A01 T00271058  RH  054%=      5-min Rain = 0
KPVS 171544Z 01005KT 03/M06 A3019 RMK A01 T00281058  RH  053%=      5-min Rain = 0
KPVS 171545Z 01004KT 03/M06 A3019 RMK A01 T00291055  RH  054%=      5-min Rain = 0
KPVS 171546Z 01005KT 03/M06 A3019 RMK A01 T00301057  RH  053%=      5-min Rain = 0
KPVS 171547Z 00006KT 03/M06 A3019 RMK A01 T00291060  RH  052%=      5-min Rain = 0
KPVS 171548Z 00005KT 03/M06 A3019 RMK A01 T00281061  RH  052%=      5-min Rain = 0
KPVS 171549Z 01005KT 03/M06 A3019 RMK A01 T00281060  RH  052%=      5-min Rain = 0
KPVS 171550Z 01005KT 03/M06 A3019 RMK A01 T00281060  RH  053%=      5-min Rain = 0
KPVS 171551Z 01005KT 03/M06 A3019 RMK A01 T00291057  RH  053%=      5-min Rain = 0
KPVS 171552Z 01004KT 03/M06 A3019 RMK A01 T00291058  RH  053%=      5-min Rain = 0
KPVS 171553Z 01004KT 03/M06 A3019 RMK A01 T00291057  RH  053%=      5-min Rain = 0
KPVS 171554Z 01005KT 03/M06 A3019 RMK A01 T00311056  RH  053%=      5-min Rain = 0
KPVS 171555Z 02004KT 03/M06 A3019 RMK A01 T00311058  RH  052%=      5-min Rain = 0
KPVS 171556Z 02005KT 03/M05 A3019 RMK A01 T00331052  RH  053%=      5-min Rain = 0
KPVS 171557Z 02005KT 04/M06 A3019 RMK A01 T00361055  RH  051%=      5-min Rain = 0
KPVS 171558Z 03004KT 04/M06 A3019 RMK A01 T00361057  RH  050%=      5-min Rain = 0
KPVS 171559Z 03005KT 04/M05 A3019 RMK A01 T00381053  RH  051%=      5-min Rain = 0
KPVS 171600Z 01006KT 04/M06 A3019 RMK A01 T00401056  RH  049%=      5-min Rain = 0
KPVS 171601Z 01007KT 04/M06 A3019 RMK A01 T00391060  RH  049%=      5-min Rain = 0
KPVS 171602Z 02007KT 04/M06 A3019 RMK A01 T00371061  RH  049%=      5-min Rain = 0
KPVS 171603Z 02007KT 04/M06 A3019 RMK A01 T00371059  RH  049%=      5-min Rain = 0
KPVS 171604Z 01005KT 04/M06 A3019 RMK A01 T00371060  RH  049%=      5-min Rain = 0
KPVS 171605Z 01006KT 04/M06 A3019 RMK A01 T00371058  RH  050%=      5-min Rain = 0
KPVS 171606Z 02006KT 04/M06 A3019 RMK A01 T00391056  RH  050%=      5-min Rain = 0
KPVS 171607Z 02005KT 04/M06 A3019 RMK A01 T00391058  RH  049%=      5-min Rain = 0
KPVS 171608Z 02006KT 04/M06 A3019 RMK A01 T00391058  RH  049%=      5-min Rain = 0
KPVS 171609Z 01008KT 04/M06 A3019 RMK A01 T00421055  RH  049%=      5-min Rain = 0
KPVS 171610Z 02007KT 04/M06 A3019 RMK A01 T00431059  RH  048%=      5-min Rain = 0
KPVS 171611Z 03007KT 04/M06 A3019 RMK A01 T00431060  RH  047%=      5-min Rain = 0
KPVS 171612Z 03006KT 04/M06 A302 RMK A01 T00431058  RH  048%=      5-min Rain = 0
KPVS 171613Z 02006KT 05/M05 A302 RMK A01 T00451054  RH  048%=      5-min Rain = 0
KPVS 171614Z 02006KT 05/M06 A302 RMK A01 T00481055  RH  047%=      5-min Rain = 0
KPVS 171615Z 03007KT 05/M06 A302 RMK A01 T00481058  RH  046%=      5-min Rain = 0
KPVS 171616Z 04010KT 05/M06 A302 RMK A01 T00471061  RH  045%=      5-min Rain = 0
KPVS 171617Z 03009KT 05/M06 A302 RMK A01 T00461063  RH  045%=      5-min Rain = 0
KPVS 171618Z 02008KT 05/M06 A302 RMK A01 T00451063  RH  045%=      5-min Rain = 0
KPVS 171619Z 03008KT 05/M06 A302 RMK A01 T00451063  RH  045%=      5-min Rain = 0
KPVS 171620Z 03007KT 05/M06 A302 RMK A01 T00461061  RH  046%=      5-min Rain = 0
KPVS 171621Z 03007KT 05/M06 A302 RMK A01 T00481058  RH  046%=      5-min Rain = 0
KPVS 171622Z 03006KT 05/M06 A302 RMK A01 T00491059  RH  045%=      5-min Rain = 0
KPVS 171623Z 02007KT 05/M06 A302 RMK A01 T00511058  RH  045%=      5-min Rain = 0
KPVS 171624Z 03006KT 05/M06 A302 RMK A01 T00511059  RH  045%=      5-min Rain = 0
KPVS 171625Z 02008KT 05/M06 A302 RMK A01 T00521060  RH  044%=      5-min Rain = 0
KPVS 171626Z 04008KT 05/M06 A302 RMK A01 T00511060  RH  044%=      5-min Rain = 0
KPVS 171627Z 03009KT 05/M06 A302 RMK A01 T00521061  RH  044%=      5-min Rain = 0
KPVS 171628Z 03010KT 05/M06 A302 RMK A01 T00501064  RH  043%=      5-min Rain = 0
KPVS 171629Z 02010KT 05/M07 A302 RMK A01 T00491065  RH  043%=      5-min Rain = 0
KPVS 171630Z 02010KT 05/M06 A302 RMK A01 T00491064  RH  044%=      5-min Rain = 0
KPVS 171631Z 02010KT 05/M07 A302 RMK A01 T00491065  RH  043%=      5-min Rain = 0
KPVS 171632Z 02011KT 05/M06 A302 RMK A01 T00501063  RH  044%=      5-min Rain = 0
KPVS 171633Z 03010KT 05/M06 A302 RMK A01 T00511063  RH  043%=      5-min Rain = 0
KPVS 171634Z 04009KT 05/M07 A302 RMK A01 T00511065  RH  043%=      5-min Rain = 0
KPVS 171635Z 03010KT 05/M06 A302 RMK A01 T00511063  RH  043%=      5-min Rain = 0
KPVS 171636Z 03008KT 05/M06 A302 RMK A01 T00521063  RH  043%=      5-min Rain = 0
KPVS 171637Z 03009KT 06/M06 A302 RMK A01 T00551060  RH  043%=      5-min Rain = 0
KPVS 171638Z 02007KT 06/M06 A302 RMK A01 T00551063  RH  042%=      5-min Rain = 0
KPVS 171639Z 03008KT 06/M06 A302 RMK A01 T00551061  RH  043%=      5-min Rain = 0
KPVS 171640Z 03009KT 06/M06 A302 RMK A01 T00551063  RH  042%=      5-min Rain = 0
KPVS 171641Z 03008KT 05/M06 A302 RMK A01 T00531064  RH  043%=      5-min Rain = 0
KPVS 171642Z 03007KT 05/M06 A302 RMK A01 T00531063  RH  043%=      5-min Rain = 0
KPVS 171643Z 02009KT 05/M06 A302 RMK A01 T00541062  RH  043%=      5-min Rain = 0
KPVS 171644Z 03009KT 06/M06 A302 RMK A01 T00551063  RH  043%=      5-min Rain = 0
KPVS 171645Z 04010KT 06/M06 A302 RMK A01 T00561062  RH  042%=      5-min Rain = 0
KPVS 171646Z 05010KT 06/M07 A302 RMK A01 T00561065  RH  041%=      5-min Rain = 0
KPVS 171647Z 04009KT 06/M06 A302 RMK A01 T00561064  RH  042%=      5-min Rain = 0
KPVS 171648Z 03008KT 06/M06 A302 RMK A01 T00591061  RH  042%=      5-min Rain = 0
KPVS 171649Z 03007KT 06/M06 A302 RMK A01 T00611061  RH  041%=      5-min Rain = 0
KPVS 171650Z 02008KT 06/M06 A302 RMK A01 T00611062  RH  041%=      5-min Rain = 0
KPVS 171651Z 04010KT 06/M06 A302 RMK A01 T00601062  RH  041%=      5-min Rain = 0
KPVS 171652Z 03011KT 06/M06 A302 RMK A01 T00591064  RH  041%=      5-min Rain = 0
KPVS 171653Z 03011KT 06/M06 A302 RMK A01 T00581064  RH  041%=      5-min Rain = 0
KPVS 171654Z 03009KT 06/M06 A302 RMK A01 T00571063  RH  042%=      5-min Rain = 0
KPVS 171655Z 03009KT 06/M06 A302 RMK A01 T00571063  RH  042%=      5-min Rain = 0
KPVS 171656Z 05009KT 06/M06 A302 RMK A01 T00571062  RH  042%=      5-min Rain = 0
KPVS 171657Z 04009KT 06/M06 A302 RMK A01 T00601058  RH  043%=      5-min Rain = 0
KPVS 171658Z 03010KT 06/M06 A302 RMK A01 T00621058  RH  042%=      5-min Rain = 0
KPVS 171659Z 05010KT 06/M06 A302 RMK A01 T00611063  RH  041%=      5-min Rain = 0
KPVS 171700Z 05010KT 06/M06 A302 RMK A01 T00601062  RH  041%=      5-min Rain = 0
KPVS 171701Z 04010KT 06/M06 A302 RMK A01 T00601061  RH  041%=      5-min Rain = 0
KPVS 171702Z 05009KT 06/M06 A302 RMK A01 T00601061  RH  041%=      5-min Rain = 0
KPVS 171703Z 04008KT 06/M06 A302 RMK A01 T00611062  RH  041%=      5-min Rain = 0
KPVS 171704Z 04009KT 06/M06 A302 RMK A01 T00621061  RH  041%=      5-min Rain = 0
KPVS 171705Z 04008KT 06/M06 A302 RMK A01 T00601062  RH  041%=      5-min Rain = 0
KPVS 171706Z 03009KT 06/M06 A302 RMK A01 T00631058  RH  042%=      5-min Rain = 0
KPVS 171707Z 03010KT 06/M06 A302 RMK A01 T00641061  RH  040%=      5-min Rain = 0
KPVS 171708Z 04009KT 06/M06 A302 RMK A01 T00641062  RH  040%=      5-min Rain = 0
KPVS 171709Z 04008KT 06/M06 A302 RMK A01 T00641062  RH  040%=      5-min Rain = 0
KPVS 171710Z 03007KT 07/M06 A302 RMK A01 T00661057  RH  041%=      5-min Rain = 0
KPVS 171711Z 02011KT 07/M06 A302 RMK A01 T00681061  RH  039%=      5-min Rain = 0
KPVS 171712Z 02011KT 07/M06 A302 RMK A01 T00661064  RH  039%=      5-min Rain = 0
KPVS 171713Z 02009KT 06/M07 A302 RMK A01 T00631066  RH  039%=      5-min Rain = 0
KPVS 171714Z 03008KT 06/M06 A302 RMK A01 T00631064  RH  040%=      5-min Rain = 0
KPVS 171715Z 04008KT 07/M06 A302 RMK A01 T00661060  RH  040%=      5-min Rain = 0
KPVS 171716Z 04006KT 07/M06 A302 RMK A01 T00681060  RH  040%=      5-min Rain = 0
KPVS 171717Z 05008KT 07/M06 A302 RMK A01 T00681063  RH  039%=      5-min Rain = 0
KPVS 171718Z 04006KT 07/M06 A302 RMK A01 T00671061  RH  039%=      5-min Rain = 0
KPVS 171719Z 04008KT 07/M06 A302 RMK A01 T00681060  RH  039%=      5-min Rain = 0
KPVS 171720Z 04009KT 07/M06 A302 RMK A01 T00691061  RH  039%=      5-min Rain = 0
KPVS 171721Z 03008KT 07/M07 A302 RMK A01 T00671065  RH  038%=      5-min Rain = 0
KPVS 171722Z 03008KT 07/M07 A302 RMK A01 T00661065  RH  039%=      5-min Rain = 0
KPVS 171723Z 04007KT 07/M06 A302 RMK A01 T00671062  RH  039%=      5-min Rain = 0
KPVS 171724Z 04008KT 07/M06 A302 RMK A01 T00711059  RH  039%=      5-min Rain = 0
KPVS 171725Z 03008KT 07/M06 A302 RMK A01 T00721063  RH  038%=      5-min Rain = 0
KPVS 171726Z 04008KT 07/M06 A302 RMK A01 T00721062  RH  038%=      5-min Rain = 0
KPVS 171727Z 04009KT 07/M06 A302 RMK A01 T00721064  RH  037%=      5-min Rain = 0
KPVS 171728Z 03009KT 07/M06 A302 RMK A01 T00701064  RH  038%=      5-min Rain = 0
KPVS 171729Z 03009KT 07/M06 A302 RMK A01 T00691064  RH  038%=      5-min Rain = 0
KPVS 171730Z 01008KT 07/M06 A302 RMK A01 T00691063  RH  038%=      5-min Rain = 0
KPVS 171731Z 01009KT 07/M06 A302 RMK A01 T00691062  RH  039%=      5-min Rain = 0
KPVS 171732Z 03006KT 07/M06 A302 RMK A01 T00711061  RH  039%=      5-min Rain = 0
KPVS 171733Z 04007KT 07/M06 A302 RMK A01 T00711061  RH  038%=      5-min Rain = 0
KPVS 171734Z 03008KT 07/M06 A302 RMK A01 T00731059  RH  039%=      5-min Rain = 0
KPVS 171735Z 02009KT 07/M06 A302 RMK A01 T00731060  RH  038%=      5-min Rain = 0
KPVS 171736Z 03007KT 07/M06 A302 RMK A01 T00731060  RH  038%=      5-min Rain = 0
KPVS 171737Z 03006KT 07/M06 A302 RMK A01 T00721060  RH  039%=      5-min Rain = 0
KPVS 171738Z 01008KT 07/M06 A302 RMK A01 T00741057  RH  039%=      5-min Rain = 0
KPVS 171739Z 02007KT 08/M06 A302 RMK A01 T00771057  RH  038%=      5-min Rain = 0
KPVS 171740Z 01007KT 08/M06 A302 RMK A01 T00781060  RH  037%=      5-min Rain = 0
KPVS 171741Z 02007KT 08/M06 A302 RMK A01 T00761062  RH  037%=      5-min Rain = 0
KPVS 171742Z 04008KT 08/M06 A3019 RMK A01 T00781060  RH  037%=      5-min Rain = 0
KPVS 171743Z 03009KT 08/M07 A3019 RMK A01 T00771065  RH  036%=      5-min Rain = 0
KPVS 171744Z 03008KT 07/M07 A3019 RMK A01 T00741066  RH  036%=      5-min Rain = 0
KPVS 171745Z 02007KT 07/M06 A3019 RMK A01 T00741064  RH  037%=      5-min Rain = 0
KPVS 171746Z 03008KT 08/M06 A3019 RMK A01 T00761061  RH  037%=      5-min Rain = 0
KPVS 171747Z 03008KT 08/M07 A3019 RMK A01 T00751065  RH  036%=      5-min Rain = 0
KPVS 171748Z 03008KT 08/M06 A3019 RMK A01 T00751063  RH  037%=      5-min Rain = 0
KPVS 171749Z 05008KT 08/M06 A3019 RMK A01 T00751064  RH  037%=      5-min Rain = 0
KPVS 171750Z 03008KT 07/M06 A3019 RMK A01 T00741064  RH  037%=      5-min Rain = 0
KPVS 171751Z 03008KT 07/M06 A3019 RMK A01 T00741063  RH  037%=      5-min Rain = 0
KPVS 171752Z 03007KT 07/M06 A3019 RMK A01 T00741064  RH  037%=      5-min Rain = 0
KPVS 171753Z 04007KT 07/M06 A3019 RMK A01 T00741062  RH  037%=      5-min Rain = 0
KPVS 171754Z 04006KT 08/M06 A3019 RMK A01 T00781063  RH  036%=      5-min Rain = 0
KPVS 171755Z 02008KT 08/M06 A3019 RMK A01 T00781064  RH  036%=      5-min Rain = 0
KPVS 171756Z 02008KT 08/M06 A3019 RMK A01 T00761064  RH  036%=      5-min Rain = 0
KPVS 171757Z 02006KT 08/M06 A3019 RMK A01 T00751064  RH  037%=      5-min Rain = 0
KPVS 171758Z 03006KT 08/M06 A3018 RMK A01 T00751063  RH  037%=      5-min Rain = 0
KPVS 171759Z 03007KT 08/M06 A3018 RMK A01 T00781061  RH  037%=      5-min Rain = 0
KPVS 171800Z 02007KT 08/M06 A3018 RMK A01 T00821062  RH  035%=      5-min Rain = 0
KPVS 171801Z 03006KT 08/M06 A3018 RMK A01 T00821062  RH  035%=      5-min Rain = 0
KPVS 171802Z 03008KT 08/M06 A3018 RMK A01 T00831062  RH  035%=      5-min Rain = 0
KPVS 171803Z 02008KT 08/M07 A3018 RMK A01 T00831067  RH  034%=      5-min Rain = 0
KPVS 171804Z 03006KT 08/M07 A3018 RMK A01 T00781072  RH  034%=      5-min Rain = 0
KPVS 171805Z 05006KT 08/M07 A3018 RMK A01 T00801066  RH  035%=      5-min Rain = 0
KPVS 171806Z 06007KT 08/M06 A3018 RMK A01 T00831064  RH  035%=      5-min Rain = 0
KPVS 171807Z 06007KT 08/M07 A3018 RMK A01 T00841065  RH  034%=      5-min Rain = 0
KPVS 171808Z 04007KT 08/M07 A3017 RMK A01 T00841065  RH  034%=      5-min Rain = 0
KPVS 171809Z 04007KT 08/M07 A3017 RMK A01 T00831070  RH  033%=      5-min Rain = 0
KPVS 171810Z 05007KT 08/M07 A3017 RMK A01 T00801071  RH  033%=      5-min Rain = 0
KPVS 171811Z 04005KT 08/M07 A3017 RMK A01 T00821071  RH  033%=      5-min Rain = 0
KPVS 171812Z 03003KT 08/M07 A3017 RMK A01 T00811071  RH  033%=      5-min Rain = 0
KPVS 171813Z 08004KT 08/M07 A3017 RMK A01 T00801070  RH  034%=      5-min Rain = 0
KPVS 171814Z 07004KT 08/M07 A3017 RMK A01 T00801071  RH  034%=      5-min Rain = 0
KPVS 171815Z 08006KT 08/M07 A3017 RMK A01 T00821068  RH  034%=      5-min Rain = 0
KPVS 171816Z 07004KT 09/M07 A3017 RMK A01 T00861067  RH  033%=      5-min Rain = 0
KPVS 171817Z 05003KT 09/M07 A3016 RMK A01 T00861068  RH  033%=      5-min Rain = 0
KPVS 171818Z 03004KT 09/M07 A3016 RMK A01 T00871069  RH  033%=      5-min Rain = 0
KPVS 171819Z 35005KT 09/M07 A3016 RMK A01 T00881067  RH  033%=      5-min Rain = 0
KPVS 171820Z 05005G10KT 09/M07 A3016 RMK A01 T00881068  RH  033%=      5-min Rain = 0
KPVS 171821Z 03002KT 09/M07 A3016 RMK A01 T00871067  RH  033%=      5-min Rain = 0
KPVS 171822Z 08002KT 09/M07 A3016 RMK A01 T00881067  RH  033%=      5-min Rain = 0
KPVS 171823Z 00004KT 09/M07 A3016 RMK A01 T00881067  RH  033%=      5-min Rain = 0
KPVS 171824Z 36005KT 09/M07 A3016 RMK A01 T00881070  RH  032%=      5-min Rain = 0
KPVS 171825Z 36007KT 09/M07 A3016 RMK A01 T00851070  RH  032%=      5-min Rain = 0
KPVS 171826Z 36005KT 08/M07 A3016 RMK A01 T00841070  RH  033%=      5-min Rain = 0
KPVS 171827Z 35007KT 08/M07 A3016 RMK A01 T00811072  RH  033%=      5-min Rain = 0
KPVS 171828Z 36006KT 08/M07 A3016 RMK A01 T00811068  RH  034%=      5-min Rain = 0
KPVS 171829Z 00005KT 08/M07 A3015 RMK A01 T00831067  RH  034%=      5-min Rain = 0
KPVS 171830Z 00004KT 08/M07 A3015 RMK A01 T00811070  RH  033%=      5-min Rain = 0
KPVS 171831Z 02003KT 08/M07 A3015 RMK A01 T00791070  RH  034%=      5-min Rain = 0
KPVS 171832Z 35003KT 08/M07 A3015 RMK A01 T00791069  RH  034%=      5-min Rain = 0
KPVS 171833Z 33003KT 08/M07 A3015 RMK A01 T00801070  RH  034%=      5-min Rain = 0
KPVS 171834Z 34002KT 08/M07 A3015 RMK A01 T00801069  RH  034%=      5-min Rain = 0
KPVS 171835Z 10002KT 08/M07 A3015 RMK A01 T00821067  RH  034%=      5-min Rain = 0
KPVS 171836Z 10004KT 08/M07 A3014 RMK A01 T00841069  RH  033%=      5-min Rain = 0
KPVS 171837Z 10004KT 08/M07 A3014 RMK A01 T00841069  RH  033%=      5-min Rain = 0
KPVS 171838Z 10003KT 08/M07 A3014 RMK A01 T00841070  RH  033%=      5-min Rain = 0
KPVS 171839Z 08003KT 08/M07 A3014 RMK A01 T00831072  RH  033%=      5-min Rain = 0
KPVS 171840Z 05001KT 08/M07 A3014 RMK A01 T00831071  RH  033%=      5-min Rain = 0
KPVS 171841Z 00000KT 08/M07 A3014 RMK A01 T00831072  RH  032%=      5-min Rain = 0
KPVS 171842Z 25001KT 08/M07 A3014 RMK A01 T00841071  RH  033%=      5-min Rain = 0
KPVS 171843Z 22001KT 09/M07 A3014 RMK A01 T00851071  RH  032%=      5-min Rain = 0
KPVS 171844Z 02000KT 09/M07 A3014 RMK A01 T00851070  RH  033%=      5-min Rain = 0
KPVS 171845Z 02004KT 09/M07 A3014 RMK A01 T00861069  RH  033%=      5-min Rain = 0
KPVS 171846Z 00003KT 08/M07 A3013 RMK A01 T00841071  RH  032%=      5-min Rain = 0
KPVS 171847Z 34003KT 08/M07 A3013 RMK A01 T00831072  RH  033%=      5-min Rain = 0
KPVS 171848Z 34004KT 08/M07 A3013 RMK A01 T00811073  RH  033%=      5-min Rain = 0
KPVS 171849Z 33003KT 08/M07 A3013 RMK A01 T00801073  RH  033%=      5-min Rain = 0
KPVS 171850Z 33003KT 08/M07 A3013 RMK A01 T00801071  RH  034%=      5-min Rain = 0
KPVS 171851Z 35004KT 08/M07 A3013 RMK A01 T00831066  RH  034%=      5-min Rain = 0
KPVS 171852Z 34003KT 09/M07 A3013 RMK A01 T00861066  RH  033%=      5-min Rain = 0
KPVS 171853Z 33001KT 09/M07 A3013 RMK A01 T00871070  RH  032%=      5-min Rain = 0
KPVS 171854Z 29001KT 09/M07 A3013 RMK A01 T00861071  RH  032%=      5-min Rain = 0
KPVS 171855Z 32002KT 09/M07 A3013 RMK A01 T00851071  RH  032%=      5-min Rain = 0
KPVS 171856Z 34002KT 09/M07 A3013 RMK A01 T00851067  RH  033%=      5-min Rain = 0
KPVS 171857Z 33003KT 09/M07 A3013 RMK A01 T00851070  RH  033%=      5-min Rain = 0
KPVS 171858Z 35003KT 09/M07 A3013 RMK A01 T00861068  RH  033%=      5-min Rain = 0
KPVS 171859Z 34001KT 09/M07 A3013 RMK A01 T00891066  RH  033%=      5-min Rain = 0
KPVS 171900Z 11002KT 09/M07 A3013 RMK A01 T00921066  RH  032%=      5-min Rain = 0
KPVS 171901Z 10003KT 09/M07 A3013 RMK A01 T00921071  RH  031%=      5-min Rain = 0
KPVS 171902Z 13001KT 09/M07 A3012 RMK A01 T00911071  RH  031%=      5-min Rain = 0
KPVS 171903Z 16001KT 09/M07 A3012 RMK A01 T00901072  RH  031%=      5-min Rain = 0
KPVS 171904Z 13004KT 09/M07 A3012 RMK A01 T00911070  RH  031%=      5-min Rain = 0
KPVS 171905Z 11005KT 09/M07 A3012 RMK A01 T00921069  RH  031%=      5-min Rain = 0
KPVS 171906Z 11005KT 09/M07 A3012 RMK A01 T00931068  RH  031%=      5-min Rain = 0
KPVS 171907Z 10005KT 09/M07 A3012 RMK A01 T00901073  RH  031%=      5-min Rain = 0
KPVS 171908Z 11005KT 09/M07 A3012 RMK A01 T00881071  RH  032%=      5-min Rain = 0
KPVS 171909Z 12003KT 09/M07 A3012 RMK A01 T00891070  RH  032%=      5-min Rain = 0
KPVS 171910Z 10002KT 09/M07 A3012 RMK A01 T00891071  RH  032%=      5-min Rain = 0
KPVS 171911Z 08002KT 09/M07 A3012 RMK A01 T00901068  RH  032%=      5-min Rain = 0
KPVS 171912Z 14002KT 09/M07 A3012 RMK A01 T00941066  RH  032%=      5-min Rain = 0
KPVS 171913Z 14003KT 10/M07 A3012 RMK A01 T00951071  RH  030%=      5-min Rain = 0
KPVS 171914Z 12004KT 10/M07 A3012 RMK A01 T00951069  RH  031%=      5-min Rain = 0
KPVS 171915Z 14005KT 09/M07 A3011 RMK A01 T00941071  RH  031%=      5-min Rain = 0
KPVS 171916Z 16003KT 09/M07 A3011 RMK A01 T00921071  RH  031%=      5-min Rain = 0
KPVS 171917Z 18003KT 09/M07 A3011 RMK A01 T00921071  RH  031%=      5-min Rain = 0
KPVS 171918Z 20002KT 09/M07 A3011 RMK A01 T00921069  RH  031%=      5-min Rain = 0
KPVS 171919Z 19004KT 09/M07 A3011 RMK A01 T00921070  RH  031%=      5-min Rain = 0
KPVS 171920Z 18002KT 09/M07 A3011 RMK A01 T00921070  RH  031%=      5-min Rain = 0
KPVS 171921Z 17001KT 09/M07 A3011 RMK A01 T00921071  RH  031%=      5-min Rain = 0
KPVS 171922Z 25000KT 09/M07 A3011 RMK A01 T00921070  RH  031%=      5-min Rain = 0
KPVS 171923Z 09001KT 09/M07 A3011 RMK A01 T00931070  RH  031%=      5-min Rain = 0
KPVS 171924Z 24001KT 10/M07 A3011 RMK A01 T00951070  RH  031%=      5-min Rain = 0
KPVS 171925Z 22003KT 10/M07 A3011 RMK A01 T00961069  RH  031%=      5-min Rain = 0
KPVS 171926Z 21004KT 10/M07 A3011 RMK A01 T00971068  RH  031%=      5-min Rain = 0
KPVS 171927Z 24003KT 10/M07 A3011 RMK A01 T00971070  RH  030%=      5-min Rain = 0
KPVS 171928Z 26002KT 10/M07 A3011 RMK A01 T00951071  RH  030%=      5-min Rain = 0
KPVS 171929Z 25002KT 09/M07 A3011 RMK A01 T00931071  RH  031%=      5-min Rain = 0
KPVS 171930Z 27001KT 09/M07 A3011 RMK A01 T00921071  RH  031%=      5-min Rain = 0
KPVS 171931Z 19001KT 09/M07 A3011 RMK A01 T00931069  RH  031%=      5-min Rain = 0
KPVS 171932Z 25002KT 10/M07 A3011 RMK A01 T00961069  RH  031%=      5-min Rain = 0
KPVS 171933Z 24003KT 10/M07 A3011 RMK A01 T00961070  RH  030%=      5-min Rain = 0
KPVS 171934Z 24003KT 09/M07 A3011 RMK A01 T00941069  RH  031%=      5-min Rain = 0
KPVS 171935Z 23001KT 09/M07 A3011 RMK A01 T00921071  RH  031%=      5-min Rain = 0
KPVS 171936Z 26001KT 09/M07 A3011 RMK A01 T00921068  RH  032%=      5-min Rain = 0
KPVS 171937Z 20002KT 09/M07 A3011 RMK A01 T00941065  RH  032%=      5-min Rain = 0
KPVS 171938Z 18002KT 10/M07 A3011 RMK A01 T00961066  RH  031%=      5-min Rain = 0
KPVS 171939Z 17002KT 10/M07 A3011 RMK A01 T00961069  RH  031%=      5-min Rain = 0
KPVS 171940Z 16001KT 10/M07 A3011 RMK A01 T00961068  RH  031%=      5-min Rain = 0
KPVS 171941Z 15004KT 10/M07 A3011 RMK A01 T00961068  RH  031%=      5-min Rain = 0
KPVS 171942Z 08003KT 10/M07 A3011 RMK A01 T00971066  RH  031%=      5-min Rain = 0
KPVS 171943Z 08002KT 10/M07 A3011 RMK A01 T00991065  RH  031%=      5-min Rain = 0
KPVS 171944Z 04003KT 10/M07 A3011 RMK A01 T00991068  RH  030%=      5-min Rain = 0
KPVS 171945Z 04004KT 10/M07 A3011 RMK A01 T00981068  RH  030%=      5-min Rain = 0
KPVS 171946Z 03002KT 10/M07 A3011 RMK A01 T00961070  RH  030%=      5-min Rain = 0
KPVS 171947Z 01003KT 09/M07 A3011 RMK A01 T00941072  RH  030%=      5-min Rain = 0
KPVS 171948Z 01003KT 09/M07 A3011 RMK A01 T00921071  RH  031%=      5-min Rain = 0
KPVS 171949Z 36003KT 09/M07 A3011 RMK A01 T00931067  RH  032%=      5-min Rain = 0
KPVS 171950Z 01003KT 10/M06 A3011 RMK A01 T00971062  RH  032%=      5-min Rain = 0
KPVS 171951Z 01004KT 10/M06 A3011 RMK A01 T01001063  RH  031%=      5-min Rain = 0
KPVS 171952Z 03002KT 10/M07 A3011 RMK A01 T00991068  RH  030%=      5-min Rain = 0
KPVS 171953Z 03003KT 10/M07 A3011 RMK A01 T00961068  RH  031%=      5-min Rain = 0
KPVS 171954Z 03004KT 10/M07 A3011 RMK A01 T00971068  RH  031%=      5-min Rain = 0
KPVS 171955Z 03003KT 10/M07 A3011 RMK A01 T00961067  RH  031%=      5-min Rain = 0
KPVS 171956Z 05002KT 10/M07 A3011 RMK A01 T00961070  RH  030%=      5-min Rain = 0
KPVS 171957Z 04001KT 09/M07 A3011 RMK A01 T00941071  RH  031%=      5-min Rain = 0
KPVS 171958Z 03001KT 09/M07 A3011 RMK A01 T00931069  RH  031%=      5-min Rain = 0
KPVS 171959Z 36004KT 10/M07 A3011 RMK A01 T00951066  RH  032%=      5-min Rain = 0
KPVS 172000Z 35003KT 10/M07 A3011 RMK A01 T00971066  RH  031%=      5-min Rain = 0
KPVS 172001Z 34003KT 10/M07 A3011 RMK A01 T00951070  RH  030%=      5-min Rain = 0
KPVS 172002Z 35001KT 09/M07 A3011 RMK A01 T00941069  RH  031%=      5-min Rain = 0
KPVS 172003Z 33001KT 09/M07 A3011 RMK A01 T00941068  RH  031%=      5-min Rain = 0
KPVS 172004Z 12002KT 10/M06 A3011 RMK A01 T00961064  RH  032%=      5-min Rain = 0
KPVS 172005Z 22001KT 10/M07 A3011 RMK A01 T00971067  RH  031%=      5-min Rain = 0
KPVS 172006Z 33004KT 10/M07 A3011 RMK A01 T00991065  RH  031%=      5-min Rain = 0
KPVS 172007Z 33005KT 10/M07 A3011 RMK A01 T00991067  RH  030%=      5-min Rain = 0
KPVS 172008Z 32005KT 10/M07 A3011 RMK A01 T00961069  RH  031%=      5-min Rain = 0
KPVS 172009Z 31004KT 10/M07 A3011 RMK A01 T00951068  RH  031%=      5-min Rain = 0
KPVS 172010Z 31004KT 10/M07 A3011 RMK A01 T00951066  RH  031%=      5-min Rain = 0
KPVS 172011Z 29004KT 10/M07 A3011 RMK A01 T00951068  RH  031%=      5-min Rain = 0
KPVS 172012Z 31004KT 09/M07 A3011 RMK A01 T00941068  RH  031%=      5-min Rain = 0
KPVS 172013Z 31002KT 09/M07 A3011 RMK A01 T00931067  RH  031%=      5-min Rain = 0
KPVS 172014Z 01001KT 09/M07 A3011 RMK A01 T00931069  RH  031%=      5-min Rain = 0
KPVS 172015Z 36001KT 09/M07 A3011 RMK A01 T00921069  RH  031%=      5-min Rain = 0
KPVS 172016Z 25001KT 09/M07 A3011 RMK A01 T00921069  RH  031%=      5-min Rain = 0
KPVS 172017Z 14002KT 09/M07 A3011 RMK A01 T00941067  RH  031%=      5-min Rain = 0
KPVS 172018Z 13002KT 10/M07 A3011 RMK A01 T00961065  RH  032%=      5-min Rain = 0
KPVS 172019Z 12004KT 10/M07 A3011 RMK A01 T00981065  RH  031%=      5-min Rain = 0
KPVS 172020Z 10004KT 10/M07 A3011 RMK A01 T00981067  RH  031%=      5-min Rain = 0
KPVS 172021Z 07002KT 10/M07 A3011 RMK A01 T00961068  RH  031%=      5-min Rain = 0
KPVS 172022Z 07003KT 09/M07 A301 RMK A01 T00941068  RH  031%=      5-min Rain = 0
KPVS 172023Z 11004KT 10/M07 A301 RMK A01 T00951067  RH  031%=      5-min Rain = 0
KPVS 172024Z 10001KT 10/M07 A301 RMK A01 T00951069  RH  031%=      5-min Rain = 0
KPVS 172025Z 15001KT 10/M07 A301 RMK A01 T00951069  RH  031%=      5-min Rain = 0
KPVS 172026Z 14003KT 10/M07 A3011 RMK A01 T00961068  RH  031%=      5-min Rain = 0
KPVS 172027Z 14003KT 10/M07 A3011 RMK A01 T00971066  RH  031%=      5-min Rain = 0
KPVS 172028Z 14004KT 10/M07 A3011 RMK A01 T00991066  RH  031%=      5-min Rain = 0
KPVS 172029Z 11005KT 10/M07 A3011 RMK A01 T00991065  RH  031%=      5-min Rain = 0
KPVS 172030Z 12004KT 10/M07 A3011 RMK A01 T01011065  RH  030%=      5-min Rain = 0
KPVS 172031Z 13003KT 10/M07 A3011 RMK A01 T01001067  RH  030%=      5-min Rain = 0
KPVS 172032Z 08004G10KT 10/M07 A3011 RMK A01 T00991068  RH  030%=      5-min Rain = 0
KPVS 172033Z 08006KT 10/M07 A301 RMK A01 T01001066  RH  030%=      5-min Rain = 0
KPVS 172034Z 07006KT 10/M07 A301 RMK A01 T01001066  RH  030%=      5-min Rain = 0
KPVS 172035Z 08003KT 10/M07 A301 RMK A01 T01001067  RH  030%=      5-min Rain = 0
KPVS 172036Z 06003KT 10/M07 A301 RMK A01 T01001067  RH  030%=      5-min Rain = 0
KPVS 172037Z 05006KT 10/M07 A301 RMK A01 T01001067  RH  030%=      5-min Rain = 0
KPVS 172038Z 06005KT 10/M07 A301 RMK A01 T01001067  RH  030%=      5-min Rain = 0
KPVS 172039Z 06005KT 10/M07 A301 RMK A01 T01011067  RH  030%=      5-min Rain = 0
KPVS 172040Z 05005KT 10/M07 A301 RMK A01 T00991068  RH  030%=      5-min Rain = 0
KPVS 172041Z 03006KT 10/M07 A301 RMK A01 T00991068  RH  030%=      5-min Rain = 0
KPVS 172042Z 02004KT 10/M07 A3011 RMK A01 T00981068  RH  030%=      5-min Rain = 0
KPVS 172043Z 03005KT 10/M07 A3011 RMK A01 T00981068  RH  030%=      5-min Rain = 0
KPVS 172044Z 06006KT 10/M06 A301 RMK A01 T01011064  RH  031%=      5-min Rain = 0
KPVS 172045Z 05004KT 10/M07 A301 RMK A01 T01011067  RH  030%=      5-min Rain = 0
KPVS 172046Z 05004KT 10/M07 A301 RMK A01 T01011067  RH  030%=      5-min Rain = 0
KPVS 172047Z 07005KT 10/M07 A301 RMK A01 T00991069  RH  030%=      5-min Rain = 0
KPVS 172048Z 07005KT 10/M07 A301 RMK A01 T00981067  RH  031%=      5-min Rain = 0
KPVS 172049Z 05004KT 10/M07 A301 RMK A01 T00991068  RH  030%=      5-min Rain = 0
KPVS 172050Z 05004KT 10/M07 A301 RMK A01 T00991068  RH  030%=      5-min Rain = 0
KPVS 172051Z 05005KT 10/M07 A301 RMK A01 T00991067  RH  030%=      5-min Rain = 0
KPVS 172052Z 04004KT 10/M07 A301 RMK A01 T01001066  RH  030%=      5-min Rain = 0
KPVS 172053Z 03002KT 10/M07 A301 RMK A01 T01001069  RH  030%=      5-min Rain = 0
KPVS 172054Z 35002KT 10/M07 A301 RMK A01 T00981069  RH  030%=      5-min Rain = 0
KPVS 172055Z 01003KT 10/M07 A301 RMK A01 T00981069  RH  030%=      5-min Rain = 0
KPVS 172056Z 10002KT 10/M07 A301 RMK A01 T00981068  RH  030%=      5-min Rain = 0
KPVS 172057Z 13001KT 10/M07 A301 RMK A01 T00981069  RH  030%=      5-min Rain = 0
KPVS 172058Z 15001KT 10/M07 A301 RMK A01 T00981069  RH  030%=      5-min Rain = 0
KPVS 172059Z 16001KT 10/M07 A301 RMK A01 T00991069  RH  030%=      5-min Rain = 0
KPVS 172100Z 14000KT 10/M07 A301 RMK A01 T00991070  RH  030%=      5-min Rain = 0
KPVS 172101Z 32001KT 10/M07 A301 RMK A01 T00991070  RH  030%=      5-min Rain = 0
KPVS 172102Z 29001KT 10/M07 A301 RMK A01 T01001069  RH  030%=      5-min Rain = 0
KPVS 172103Z 25001KT 10/M07 A301 RMK A01 T01001070  RH  029%=      5-min Rain = 0
KPVS 172104Z 22001KT 10/M07 A301 RMK A01 T00991071  RH  030%=      5-min Rain = 0
KPVS 172105Z 22000KT 10/M07 A301 RMK A01 T01001070  RH  030%=      5-min Rain = 0
KPVS 172106Z 33002KT 10/M07 A301 RMK A01 T01001068  RH  030%=      5-min Rain = 0
KPVS 172107Z 33004KT 10/M07 A301 RMK A01 T01011067  RH  030%=      5-min Rain = 0
KPVS 172108Z 34005KT 10/M07 A301 RMK A01 T01021066  RH  030%=      5-min Rain = 0
KPVS 172109Z 35005KT 10/M07 A301 RMK A01 T01021068  RH  030%=      5-min Rain = 0
KPVS 172110Z 00003KT 10/M07 A301 RMK A01 T00991070  RH  030%=      5-min Rain = 0
KPVS 172111Z 00004KT 10/M07 A301 RMK A01 T00981069  RH  030%=      5-min Rain = 0
KPVS 172112Z 34003KT 10/M07 A301 RMK A01 T00981068  RH  031%=      5-min Rain = 0
KPVS 172113Z 35003KT 10/M07 A301 RMK A01 T00991066  RH  031%=      5-min Rain = 0
KPVS 172114Z 00004KT 10/M07 A301 RMK A01 T00991069  RH  030%=      5-min Rain = 0
KPVS 172115Z 02004KT 10/M07 A301 RMK A01 T00971069  RH  030%=      5-min Rain = 0
KPVS 172116Z 05003KT 10/M07 A301 RMK A01 T00971069  RH  030%=      5-min Rain = 0
KPVS 172117Z 00002KT 10/M07 A301 RMK A01 T00981065  RH  031%=      5-min Rain = 0
KPVS 172118Z 01003KT 10/M07 A301 RMK A01 T01001066  RH  030%=      5-min Rain = 0
KPVS 172119Z 31001KT 10/M07 A301 RMK A01 T00981070  RH  030%=      5-min Rain = 0
KPVS 172120Z 32001KT 10/M07 A301 RMK A01 T00971070  RH  030%=      5-min Rain = 0
KPVS 172121Z 32003KT 10/M07 A301 RMK A01 T00981068  RH  030%=      5-min Rain = 0
KPVS 172122Z 34002KT 10/M07 A301 RMK A01 T00981068  RH  030%=      5-min Rain = 0
KPVS 172123Z 33002KT 10/M07 A301 RMK A01 T00971070  RH  030%=      5-min Rain = 0
KPVS 172124Z 33001KT 10/M07 A301 RMK A01 T00961070  RH  030%=      5-min Rain = 0
KPVS 172125Z 29002KT 10/M07 A301 RMK A01 T00971067  RH  031%=      5-min Rain = 0
KPVS 172126Z 26001KT 10/M07 A301 RMK A01 T01001065  RH  031%=      5-min Rain = 0
KPVS 172127Z 28001KT 10/M07 A301 RMK A01 T01021067  RH  030%=      5-min Rain = 0
KPVS 172128Z 24002KT 10/M07 A301 RMK A01 T01031066  RH  030%=      5-min Rain = 0
KPVS 172129Z 22003KT 11/M07 A301 RMK A01 T01051066  RH  030%=      5-min Rain = 0
KPVS 172130Z 22003KT 11/M07 A301 RMK A01 T01051067  RH  029%=      5-min Rain = 0
KPVS 172131Z 23003KT 10/M07 A301 RMK A01 T01041068  RH  029%=      5-min Rain = 0
KPVS 172132Z 23003KT 10/M07 A301 RMK A01 T01021070  RH  029%=      5-min Rain = 0
KPVS 172133Z 25001KT 10/M07 A301 RMK A01 T01011070  RH  029%=      5-min Rain = 0
KPVS 172134Z 29002KT 10/M07 A301 RMK A01 T01011070  RH  029%=      5-min Rain = 0
KPVS 172135Z 31001KT 10/M07 A301 RMK A01 T01011070  RH  029%=      5-min Rain = 0
KPVS 172136Z 28002KT 10/M07 A301 RMK A01 T01001069  RH  030%=      5-min Rain = 0
KPVS 172137Z 24005KT 10/M07 A301 RMK A01 T01011068  RH  030%=      5-min Rain = 0
KPVS 172138Z 24003KT 10/M07 A301 RMK A01 T01011068  RH  030%=      5-min Rain = 0
KPVS 172139Z 25002KT 10/M07 A301 RMK A01 T01001069  RH  030%=      5-min Rain = 0
KPVS 172140Z 25002KT 10/M07 A301 RMK A01 T00991069  RH  030%=      5-min Rain = 0
KPVS 172141Z 26001KT 10/M07 A301 RMK A01 T01001067  RH  030%=      5-min Rain = 0
KPVS 172142Z 30002KT 10/M07 A301 RMK A01 T01021068  RH  030%=      5-min Rain = 0
KPVS 172143Z 33001KT 10/M07 A301 RMK A01 T01021070  RH  029%=      5-min Rain = 0
KPVS 172144Z 34002KT 10/M07 A301 RMK A01 T01021070  RH  029%=      5-min Rain = 0
KPVS 172145Z 32000KT 10/M07 A301 RMK A01 T01001070  RH  029%=      5-min Rain = 0
KPVS 172146Z 05000KT 10/M07 A3009 RMK A01 T00991069  RH  030%=      5-min Rain = 0
KPVS 172147Z 04002KT 10/M07 A3009 RMK A01 T01001070  RH  030%=      5-min Rain = 0
KPVS 172148Z 05001KT 10/M07 A3009 RMK A01 T00991071  RH  030%=      5-min Rain = 0
KPVS 172149Z 21002KT 10/M07 A3009 RMK A01 T00981070  RH  030%=      5-min Rain = 0
KPVS 172150Z 23003KT 10/M07 A3009 RMK A01 T00991069  RH  030%=      5-min Rain = 0
KPVS 172151Z 21002KT 10/M07 A3009 RMK A01 T01001069  RH  030%=      5-min Rain = 0
KPVS 172152Z 21002KT 10/M07 A3009 RMK A01 T01021067  RH  030%=      5-min Rain = 0
KPVS 172153Z 22002KT 10/M07 A3009 RMK A01 T01031070  RH  029%=      5-min Rain = 0
KPVS 172154Z 23003KT 10/M07 A3009 RMK A01 T01021070  RH  029%=      5-min Rain = 0
KPVS 172155Z 23002KT 10/M07 A3009 RMK A01 T01021069  RH  029%=      5-min Rain = 0
KPVS 172156Z 21002KT 10/M07 A3009 RMK A01 T01021069  RH  029%=      5-min Rain = 0
KPVS 172157Z 22003KT 10/M07 A3009 RMK A01 T01031065  RH  030%=      5-min Rain = 0
KPVS 172158Z 22001KT 10/M07 A3009 RMK A01 T01041069  RH  029%=      5-min Rain = 0
KPVS 172159Z 24001KT 11/M07 A3009 RMK A01 T01051065  RH  030%=      5-min Rain = 0
KPVS 172200Z 24002KT 11/M07 A3009 RMK A01 T01061068  RH  029%=      5-min Rain = 0
KPVS 172201Z 24005KT 11/M07 A3009 RMK A01 T01061067  RH  029%=      5-min Rain = 0
KPVS 172202Z 24005KT 11/M07 A3009 RMK A01 T01051068  RH  029%=      5-min Rain = 0
KPVS 172203Z 23002KT 10/M07 A3009 RMK A01 T01021069  RH  029%=      5-min Rain = 0
KPVS 172204Z 22002KT 10/M07 A3009 RMK A01 T01011068  RH  030%=      5-min Rain = 0
KPVS 172205Z 22005KT 10/M07 A3009 RMK A01 T01021066  RH  030%=      5-min Rain = 0
KPVS 172206Z 22003KT 10/M07 A3009 RMK A01 T01021068  RH  029%=      5-min Rain = 0
KPVS 172207Z 19002KT 10/M07 A3009 RMK A01 T01011068  RH  030%=      5-min Rain = 0
KPVS 172208Z 17001KT 10/M07 A3009 RMK A01 T01021067  RH  030%=      5-min Rain = 0
KPVS 172209Z 15001KT 10/M07 A3009 RMK A01 T01031067  RH  030%=      5-min Rain = 0
KPVS 172210Z 14002KT 11/M07 A3009 RMK A01 T01051066  RH  029%=      5-min Rain = 0
KPVS 172211Z 18001KT 11/M07 A3009 RMK A01 T01051068  RH  029%=      5-min Rain = 0
KPVS 172212Z 20001KT 11/M07 A3009 RMK A01 T01051068  RH  029%=      5-min Rain = 0
KPVS 172213Z 16002KT 11/M07 A3009 RMK A01 T01061067  RH  029%=      5-min Rain = 0
KPVS 172214Z 20003KT 11/M07 A3009 RMK A01 T01071067  RH  029%=      5-min Rain = 0
KPVS 172215Z 21003KT 11/M07 A3009 RMK A01 T01071068  RH  029%=      5-min Rain = 0
KPVS 172216Z 18002KT 11/M07 A3009 RMK A01 T01061066  RH  029%=      5-min Rain = 0
KPVS 172217Z 18002KT 11/M07 A3009 RMK A01 T01061065  RH  030%=      5-min Rain = 0
KPVS 172218Z 21003KT 11/M07 A3009 RMK A01 T01061066  RH  029%=      5-min Rain = 0
KPVS 172219Z 21003KT 11/M06 A3009 RMK A01 T01071064  RH  029%=      5-min Rain = 0
KPVS 172220Z 21004KT 11/M07 A3009 RMK A01 T01081065  RH  029%=      5-min Rain = 0
KPVS 172221Z 21003KT 11/M07 A3009 RMK A01 T01071065  RH  029%=      5-min Rain = 0
KPVS 172222Z 21003KT 11/M07 A3009 RMK A01 T01071066  RH  029%=      5-min Rain = 0
KPVS 172223Z 26002KT 11/M07 A3009 RMK A01 T01071065  RH  029%=      5-min Rain = 0
KPVS 172224Z 25004KT 11/M07 A3009 RMK A01 T01071066  RH  029%=      5-min Rain = 0
KPVS 172225Z 24004KT 11/M07 A3009 RMK A01 T01061066  RH  029%=      5-min Rain = 0
KPVS 172226Z 21004KT 11/M07 A3009 RMK A01 T01051065  RH  030%=      5-min Rain = 0
KPVS 172227Z 22003KT 11/M06 A3009 RMK A01 T01051062  RH  030%=      5-min Rain = 0
KPVS 172228Z 27003KT 11/M07 A3009 RMK A01 T01061065  RH  029%=      5-min Rain = 0
KPVS 172229Z 29001KT 11/M07 A3008 RMK A01 T01061067  RH  029%=      5-min Rain = 0
KPVS 172230Z 22002KT 11/M07 A3008 RMK A01 T01061066  RH  029%=      5-min Rain = 0
KPVS 172231Z 29002KT 11/M07 A3008 RMK A01 T01071065  RH  029%=      5-min Rain = 0
KPVS 172232Z 29003KT 11/M07 A3008 RMK A01 T01071068  RH  029%=      5-min Rain = 0
KPVS 172233Z 28002KT 11/M07 A3008 RMK A01 T01061068  RH  029%=      5-min Rain = 0
KPVS 172234Z 24003KT 11/M07 A3008 RMK A01 T01051067  RH  029%=      5-min Rain = 0
KPVS 172235Z 25004KT 10/M07 A3008 RMK A01 T01041067  RH  029%=      5-min Rain = 0
KPVS 172236Z 25003KT 10/M07 A3008 RMK A01 T01031067  RH  030%=      5-min Rain = 0
KPVS 172237Z 25004KT 10/M07 A3008 RMK A01 T01021067  RH  030%=      5-min Rain = 0
KPVS 172238Z 25004KT 10/M07 A3008 RMK A01 T01011068  RH  030%=      5-min Rain = 0
KPVS 172239Z 25003KT 10/M07 A3008 RMK A01 T01001067  RH  030%=      5-min Rain = 0
KPVS 172240Z 24001KT 10/M07 A3008 RMK A01 T01001068  RH  030%=      5-min Rain = 0
KPVS 172241Z 26001KT 10/M07 A3008 RMK A01 T00991067  RH  030%=      5-min Rain = 0
KPVS 172242Z 18001KT 10/M07 A3007 RMK A01 T01011068  RH  030%=      5-min Rain = 0
KPVS 172243Z 18002KT 10/M07 A3007 RMK A01 T01021068  RH  030%=      5-min Rain = 0
KPVS 172244Z 19001KT 10/M07 A3007 RMK A01 T01031068  RH  029%=      5-min Rain = 0
KPVS 172245Z 17001KT 10/M07 A3007 RMK A01 T01041067  RH  029%=      5-min Rain = 0
KPVS 172246Z 18001KT 10/M07 A3007 RMK A01 T01041067  RH  029%=      5-min Rain = 0
KPVS 172247Z 23002KT 10/M07 A3007 RMK A01 T01041067  RH  029%=      5-min Rain = 0
KPVS 172248Z 25004KT 10/M07 A3007 RMK A01 T01041066  RH  030%=      5-min Rain = 0
KPVS 172249Z 23005KT 10/M07 A3007 RMK A01 T01031066  RH  030%=      5-min Rain = 0
KPVS 172250Z 21005KT 10/M07 A3007 RMK A01 T01021065  RH  030%=      5-min Rain = 0
KPVS 172251Z 21004KT 10/M06 A3007 RMK A01 T01021064  RH  031%=      5-min Rain = 0
KPVS 172252Z 24003KT 10/M06 A3007 RMK A01 T01021064  RH  030%=      5-min Rain = 0
KPVS 172253Z 23006KT 10/M07 A3007 RMK A01 T01021066  RH  030%=      5-min Rain = 0
KPVS 172254Z 24006KT 10/M07 A3007 RMK A01 T01011068  RH  030%=      5-min Rain = 0
KPVS 172255Z 24004KT 10/M07 A3007 RMK A01 T01001069  RH  030%=      5-min Rain = 0
KPVS 172256Z 23004KT 10/M07 A3007 RMK A01 T00991068  RH  030%=      5-min Rain = 0
KPVS 172257Z 22004KT 10/M07 A3007 RMK A01 T00991067  RH  030%=      5-min Rain = 0
KPVS 172258Z 22004KT 10/M07 A3007 RMK A01 T00991068  RH  030%=      5-min Rain = 0
KPVS 172259Z 22004KT 10/M07 A3007 RMK A01 T01001066  RH  030%=      5-min Rain = 0
KPVS 172300Z 20004KT 10/M07 A3007 RMK A01 T01001066  RH  030%=      5-min Rain = 0
KPVS 172301Z 20005KT 10/M07 A3007 RMK A01 T01001066  RH  030%=      5-min Rain = 0
KPVS 172302Z 20004KT 10/M07 A3007 RMK A01 T01011066  RH  030%=      5-min Rain = 0
KPVS 172303Z 20003KT 10/M07 A3007 RMK A01 T00991067  RH  030%=      5-min Rain = 0
KPVS 172304Z 21003KT 10/M07 A3007 RMK A01 T00991066  RH  031%=      5-min Rain = 0
KPVS 172305Z 21002KT 10/M07 A3007 RMK A01 T00991066  RH  031%=      5-min Rain = 0
KPVS 172306Z 20002KT 10/M07 A3007 RMK A01 T00991066  RH  031%=      5-min Rain = 0
KPVS 172307Z 17003KT 10/M07 A3007 RMK A01 T01001065  RH  031%=      5-min Rain = 0
KPVS 172308Z 17005KT 10/M06 A3007 RMK A01 T01001064  RH  031%=      5-min Rain = 0
KPVS 172309Z 18004KT 10/M07 A3007 RMK A01 T01001065  RH  031%=      5-min Rain = 0
KPVS 172310Z 20005KT 10/M06 A3007 RMK A01 T00991064  RH  031%=      5-min Rain = 0
KPVS 172311Z 20004KT 10/M06 A3007 RMK A01 T00991064  RH  031%=      5-min Rain = 0
KPVS 172312Z 19005KT 10/M07 A3007 RMK A01 T00981065  RH  031%=      5-min Rain = 0
KPVS 172313Z 19004KT 10/M07 A3007 RMK A01 T00971066  RH  031%=      5-min Rain = 0
KPVS 172314Z 19003KT 10/M07 A3007 RMK A01 T00971066  RH  031%=      5-min Rain = 0
KPVS 172315Z 19002KT 10/M07 A3007 RMK A01 T00971066  RH  031%=      5-min Rain = 0
KPVS 172316Z 21001KT 10/M07 A3007 RMK A01 T00971066  RH  031%=      5-min Rain = 0
KPVS 172317Z 20001KT 10/M07 A3007 RMK A01 T00971067  RH  031%=      5-min Rain = 0
KPVS 172318Z 20002KT 10/M07 A3007 RMK A01 T00981066  RH  031%=      5-min Rain = 0
KPVS 172319Z 20003KT 10/M07 A3007 RMK A01 T00981065  RH  031%=      5-min Rain = 0
KPVS 172320Z 20002KT 10/M07 A3007 RMK A01 T00981066  RH  031%=      5-min Rain = 0
KPVS 172321Z 19002KT 10/M07 A3007 RMK A01 T00981066  RH  031%=      5-min Rain = 0
KPVS 172322Z 20003KT 10/M07 A3007 RMK A01 T00981066  RH  031%=      5-min Rain = 0
KPVS 172323Z 19003KT 10/M07 A3007 RMK A01 T00981066  RH  031%=      5-min Rain = 0
KPVS 172324Z 20003KT 10/M06 A3007 RMK A01 T00981064  RH  031%=      5-min Rain = 0
KPVS 172325Z 20004KT 10/M06 A3007 RMK A01 T00981064  RH  031%=      5-min Rain = 0
KPVS 172326Z 20004KT 10/M07 A3007 RMK A01 T00981065  RH  031%=      5-min Rain = 0
KPVS 172327Z 21004KT 10/M07 A3007 RMK A01 T00981065  RH  031%=      5-min Rain = 0
KPVS 172328Z 22003KT 10/M06 A3007 RMK A01 T00971064  RH  032%=      5-min Rain = 0
KPVS 172329Z 22003KT 10/M06 A3007 RMK A01 T00971064  RH  032%=      5-min Rain = 0
KPVS 172330Z 21004KT 10/M06 A3007 RMK A01 T00961063  RH  032%=      5-min Rain = 0
KPVS 172331Z 22003KT 10/M06 A3007 RMK A01 T00961064  RH  032%=      5-min Rain = 0
KPVS 172332Z 21003KT 10/M07 A3007 RMK A01 T00951065  RH  032%=      5-min Rain = 0
KPVS 172333Z 22003KT 10/M06 A3007 RMK A01 T00951062  RH  032%=      5-min Rain = 0
KPVS 172334Z 21004KT 10/M06 A3007 RMK A01 T00951063  RH  032%=      5-min Rain = 0
KPVS 172335Z 21004KT 09/M06 A3007 RMK A01 T00941064  RH  032%=      5-min Rain = 0
KPVS 172336Z 21003KT 09/M06 A3007 RMK A01 T00941064  RH  032%=      5-min Rain = 0
KPVS 172337Z 22003KT 09/M06 A3007 RMK A01 T00941064  RH  032%=      5-min Rain = 0
KPVS 172338Z 21002KT 09/M06 A3007 RMK A01 T00941062  RH  033%=      5-min Rain = 0
KPVS 172339Z 21002KT 09/M06 A3007 RMK A01 T00931062  RH  033%=      5-min Rain = 0
KPVS 172340Z 21003KT 09/M06 A3007 RMK A01 T00921062  RH  033%=      5-min Rain = 0
KPVS 172341Z 20003KT 09/M06 A3007 RMK A01 T00921063  RH  033%=      5-min Rain = 0
KPVS 172342Z 21004KT 09/M06 A3007 RMK A01 T00921062  RH  033%=      5-min Rain = 0
KPVS 172343Z 21004KT 09/M06 A3007 RMK A01 T00901062  RH  033%=      5-min Rain = 0
KPVS 172344Z 20004KT 09/M06 A3007 RMK A01 T00891062  RH  034%=      5-min Rain = 0
KPVS 172345Z 19004KT 09/M06 A3007 RMK A01 T00881062  RH  034%=      5-min Rain = 0
KPVS 172346Z 19004KT 09/M06 A3007 RMK A01 T00871062  RH  034%=      5-min Rain = 0
KPVS 172347Z 19003KT 09/M06 A3007 RMK A01 T00871062  RH  034%=      5-min Rain = 0
KPVS 172348Z 19003KT 09/M06 A3007 RMK A01 T00861062  RH  034%=      5-min Rain = 0
KPVS 172349Z 19004KT 09/M06 A3007 RMK A01 T00851062  RH  035%=      5-min Rain = 0
KPVS 172350Z 18004KT 08/M06 A3007 RMK A01 T00841062  RH  035%=      5-min Rain = 0
KPVS 172351Z 19004KT 08/M06 A3007 RMK A01 T00841062  RH  035%=      5-min Rain = 0
KPVS 172352Z 18004KT 08/M06 A3007 RMK A01 T00831062  RH  035%=      5-min Rain = 0
KPVS 172353Z 20004KT 08/M06 A3007 RMK A01 T00821061  RH  035%=      5-min Rain = 0
KPVS 172354Z 20004KT 08/M06 A3007 RMK A01 T00811062  RH  036%=      5-min Rain = 0
KPVS 172355Z 21004KT 08/M06 A3007 RMK A01 T00811062  RH  036%=      5-min Rain = 0
KPVS 172356Z 20004KT 08/M06 A3007 RMK A01 T00801061  RH  036%=      5-min Rain = 0
KPVS 172357Z 20004KT 08/M06 A3007 RMK A01 T00801061  RH  036%=      5-min Rain = 0
KPVS 172358Z 20005KT 08/M06 A3007 RMK A01 T00791061  RH  036%=      5-min Rain = 0
KPVS 172359Z 21004KT 08/M06 A3007 RMK A01 T00781061  RH  037%=      5-min Rain = 0
KPVS 180000Z 21004KT 08/M06 A3007 RMK A01 T00781061  RH  037%=      5-min Rain = 0
KPVS 180001Z 21004KT 08/M06 A3007 RMK A01 T00781061  RH  037%=      5-min Rain = 0
KPVS 180002Z 21004KT 08/M06 A3007 RMK A01 T00771061  RH  037%=      5-min Rain = 0
KPVS 180003Z 21004KT 08/M06 A3007 RMK A01 T00771061  RH  037%=      5-min Rain = 0
KPVS 180004Z 20005KT 08/M06 A3007 RMK A01 T00761061  RH  037%=      5-min Rain = 0
KPVS 180005Z 20005KT 08/M06 A3007 RMK A01 T00761062  RH  037%=      5-min Rain = 0
KPVS 180006Z 20004KT 08/M06 A3007 RMK A01 T00751062  RH  037%=      5-min Rain = 0
KPVS 180007Z 20005KT 07/M06 A3007 RMK A01 T00741063  RH  037%=      5-min Rain = 0
KPVS 180008Z 19004KT 07/M06 A3007 RMK A01 T00721063  RH  038%=      5-min Rain = 0
KPVS 180009Z 19004KT 07/M06 A3007 RMK A01 T00691063  RH  038%=      5-min Rain = 0
KPVS 180010Z 19004KT 07/M06 A3007 RMK A01 T00681063  RH  039%=      5-min Rain = 0
KPVS 180011Z 19005KT 07/M06 A3007 RMK A01 T00661063  RH  039%=      5-min Rain = 0
KPVS 180012Z 19005KT 07/M06 A3007 RMK A01 T00651063  RH  040%=      5-min Rain = 0
KPVS 180013Z 19005KT 07/M06 A3007 RMK A01 T00651062  RH  040%=      5-min Rain = 0
KPVS 180014Z 19005KT 06/M06 A3007 RMK A01 T00641062  RH  040%=      5-min Rain = 0
KPVS 180015Z 20005KT 06/M06 A3007 RMK A01 T00631062  RH  040%=      5-min Rain = 0
KPVS 180016Z 20005KT 06/M06 A3007 RMK A01 T00631062  RH  040%=      5-min Rain = 0
KPVS 180017Z 20006KT 06/M06 A3007 RMK A01 T00631063  RH  040%=      5-min Rain = 0
KPVS 180018Z 20005KT 06/M06 A3007 RMK A01 T00631063  RH  040%=      5-min Rain = 0
KPVS 180019Z 20006KT 06/M06 A3007 RMK A01 T00631062  RH  040%=      5-min Rain = 0
KPVS 180020Z 20006KT 06/M06 A3007 RMK A01 T00631062  RH  040%=      5-min Rain = 0
KPVS 180021Z 20005KT 06/M06 A3007 RMK A01 T00641062  RH  040%=      5-min Rain = 0
KPVS 180022Z 20005KT 06/M06 A3007 RMK A01 T00641063  RH  040%=      5-min Rain = 0
KPVS 180023Z 20005KT 06/M06 A3007 RMK A01 T00641063  RH  040%=      5-min Rain = 0
KPVS 180024Z 20005KT 06/M06 A3007 RMK A01 T00631063  RH  040%=      5-min Rain = 0
KPVS 180025Z 20005KT 06/M06 A3007 RMK A01 T00621063  RH  040%=      5-min Rain = 0
KPVS 180026Z 20005KT 06/M06 A3007 RMK A01 T00601063  RH  041%=      5-min Rain = 0
KPVS 180027Z 20004KT 06/M06 A3007 RMK A01 T00591064  RH  041%=      5-min Rain = 0
KPVS 180028Z 19004KT 06/M06 A3007 RMK A01 T00581063  RH  041%=      5-min Rain = 0
KPVS 180029Z 20004KT 06/M06 A3007 RMK A01 T00571063  RH  042%=      5-min Rain = 0
KPVS 180030Z 20005KT 06/M06 A3007 RMK A01 T00561063  RH  042%=      5-min Rain = 0
KPVS 180031Z 20005KT 06/M06 A3007 RMK A01 T00551063  RH  042%=      5-min Rain = 0
KPVS 180032Z 20005KT 06/M06 A3007 RMK A01 T00551063  RH  042%=      5-min Rain = 0
KPVS 180033Z 20005KT 06/M06 A3007 RMK A01 T00551063  RH  043%=      5-min Rain = 0
KPVS 180034Z 20005KT 05/M06 A3007 RMK A01 T00541063  RH  043%=      5-min Rain = 0
KPVS 180035Z 20006KT 05/M06 A3007 RMK A01 T00531063  RH  043%=      5-min Rain = 0
KPVS 180036Z 19005KT 05/M06 A3007 RMK A01 T00521063  RH  043%=      5-min Rain = 0
KPVS 180037Z 19005KT 05/M06 A3007 RMK A01 T00511064  RH  043%=      5-min Rain = 0
KPVS 180038Z 19004KT 05/M06 A3007 RMK A01 T00501064  RH  044%=      5-min Rain = 0
KPVS 180039Z 19005KT 05/M06 A3007 RMK A01 T00491063  RH  044%=      5-min Rain = 0
KPVS 180040Z 19005KT 05/M06 A3007 RMK A01 T00481063  RH  045%=      5-min Rain = 0
KPVS 180041Z 19005KT 05/M06 A3007 RMK A01 T00481063  RH  045%=      5-min Rain = 0
KPVS 180042Z 19004KT 05/M06 A3007 RMK A01 T00471063  RH  045%=      5-min Rain = 0
KPVS 180043Z 19004KT 05/M06 A3007 RMK A01 T00461063  RH  045%=      5-min Rain = 0
KPVS 180044Z 18005KT 05/M06 A3007 RMK A01 T00461063  RH  045%=      5-min Rain = 0
KPVS 180045Z 18005KT 05/M06 A3007 RMK A01 T00461064  RH  045%=      5-min Rain = 0
KPVS 180046Z 19005KT 05/M06 A3007 RMK A01 T00451064  RH  045%=      5-min Rain = 0
KPVS 180047Z 18006KT 05/M06 A3007 RMK A01 T00451064  RH  045%=      5-min Rain = 0
KPVS 180048Z 19007KT 05/M06 A3007 RMK A01 T00451064  RH  045%=      5-min Rain = 0
KPVS 180049Z 19006KT 05/M06 A3007 RMK A01 T00461064  RH  045%=      5-min Rain = 0
KPVS 180050Z 19007KT 05/M06 A3007 RMK A01 T00471063  RH  045%=      5-min Rain = 0
KPVS 180051Z 19008KT 05/M06 A3007 RMK A01 T00481062  RH  045%=      5-min Rain = 0
KPVS 180052Z 19008KT 05/M06 A3007 RMK A01 T00501061  RH  045%=      5-min Rain = 0
KPVS 180053Z 19008KT 05/M06 A3007 RMK A01 T00511060  RH  044%=      5-min Rain = 0
KPVS 180054Z 19008KT 05/M06 A3007 RMK A01 T00521060  RH  044%=      5-min Rain = 0
KPVS 180055Z 19007KT 05/M06 A3007 RMK A01 T00521060  RH  044%=      5-min Rain = 0
KPVS 180056Z 19007KT 05/M06 A3007 RMK A01 T00531060  RH  044%=      5-min Rain = 0
KPVS 180057Z 19007KT 05/M06 A3007 RMK A01 T00521060  RH  044%=      5-min Rain = 0
KPVS 180058Z 19008KT 05/M06 A3007 RMK A01 T00521060  RH  044%=      5-min Rain = 0
KPVS 180059Z 19008KT 05/M06 A3007 RMK A01 T00521060  RH  044%=      5-min Rain = 0
KPVS 180100Z 19008KT 05/M06 A3007 RMK A01 T00521060  RH  044%=      5-min Rain = 0
KPVS 180101Z 19008KT 05/M06 A3007 RMK A01 T00531060  RH  044%=      5-min Rain = 0
KPVS 180102Z 19009KT 05/M06 A3007 RMK A01 T00531060  RH  044%=      5-min Rain = 0
KPVS 180103Z 19009KT 05/M06 A3007 RMK A01 T00541060  RH  044%=      5-min Rain = 0
KPVS 180104Z 19009KT 05/M06 A3007 RMK A01 T00531060  RH  044%=      5-min Rain = 0
KPVS 180105Z 19009KT 05/M06 A3007 RMK A01 T00541060  RH  044%=      5-min Rain = 0
KPVS 180106Z 19009KT 05/M06 A3007 RMK A01 T00531060  RH  044%=      5-min Rain = 0
KPVS 180107Z 19009KT 05/M06 A3007 RMK A01 T00531059  RH  044%=      5-min Rain = 0
KPVS 180108Z 19009KT 05/M06 A3007 RMK A01 T00531059  RH  044%=      5-min Rain = 0
KPVS 180109Z 19009KT 05/M06 A3008 RMK A01 T00531059  RH  044%=      5-min Rain = 0
KPVS 180110Z 19008KT 05/M06 A3008 RMK A01 T00521059  RH  045%=      5-min Rain = 0
KPVS 180111Z 19009KT 05/M06 A3008 RMK A01 T00521058  RH  045%=      5-min Rain = 0
KPVS 180112Z 19009KT 05/M06 A3008 RMK A01 T00521058  RH  045%=      5-min Rain = 0
KPVS 180113Z 19008KT 05/M06 A3008 RMK A01 T00511058  RH  045%=      5-min Rain = 0
KPVS 180114Z 19009KT 05/M06 A3008 RMK A01 T00511057  RH  045%=      5-min Rain = 0
KPVS 180115Z 19008KT 05/M06 A3007 RMK A01 T00511057  RH  045%=      5-min Rain = 0
KPVS 180116Z 19009KT 05/M06 A3007 RMK A01 T00521056  RH  046%=      5-min Rain = 0
KPVS 180117Z 19009KT 05/M06 A3007 RMK A01 T00521056  RH  046%=      5-min Rain = 0
KPVS 180118Z 19009KT 05/M06 A3007 RMK A01 T00511057  RH  045%=      5-min Rain = 0
KPVS 180119Z 19010KT 05/M06 A3007 RMK A01 T00511057  RH  046%=      5-min Rain = 0
KPVS 180120Z 19010KT 05/M06 A3007 RMK A01 T00501057  RH  046%=      5-min Rain = 0
KPVS 180121Z 18009KT 05/M06 A3007 RMK A01 T00491057  RH  046%=      5-min Rain = 0
KPVS 180122Z 18009KT 05/M06 A3007 RMK A01 T00481057  RH  047%=      5-min Rain = 0
KPVS 180123Z 19009KT 05/M06 A3007 RMK A01 T00471057  RH  047%=      5-min Rain = 0
KPVS 180124Z 19009KT 05/M06 A3007 RMK A01 T00451057  RH  047%=      5-min Rain = 0
KPVS 180125Z 19010KT 04/M06 A3007 RMK A01 T00441057  RH  048%=      5-min Rain = 0
KPVS 180126Z 19009KT 04/M06 A3007 RMK A01 T00441057  RH  048%=      5-min Rain = 0
KPVS 180127Z 18009KT 04/M06 A3007 RMK A01 T00431057  RH  048%=      5-min Rain = 0
KPVS 180128Z 18010KT 04/M06 A3007 RMK A01 T00431056  RH  049%=      5-min Rain = 0
KPVS 180129Z 18009KT 04/M06 A3007 RMK A01 T00431056  RH  049%=      5-min Rain = 0
KPVS 180130Z 18008KT 04/M06 A3006 RMK A01 T00421056  RH  049%=      5-min Rain = 0
KPVS 180131Z 18009KT 04/M06 A3006 RMK A01 T00421056  RH  049%=      5-min Rain = 0
KPVS 180132Z 19008KT 04/M06 A3006 RMK A01 T00411056  RH  049%=      5-min Rain = 0
KPVS 180133Z 18009KT 04/M06 A3006 RMK A01 T00411056  RH  049%=      5-min Rain = 0
KPVS 180134Z 19009KT 04/M06 A3006 RMK A01 T00411055  RH  050%=      5-min Rain = 0
KPVS 180135Z 18009KT 04/M06 A3006 RMK A01 T00411055  RH  050%=      5-min Rain = 0
KPVS 180136Z 18009KT 04/M05 A3006 RMK A01 T00421054  RH  050%=      5-min Rain = 0
KPVS 180137Z 18009KT 04/M05 A3006 RMK A01 T00431054  RH  050%=      5-min Rain = 0
KPVS 180138Z 18008KT 04/M05 A3006 RMK A01 T00431053  RH  050%=      5-min Rain = 0
KPVS 180139Z 18007KT 04/M05 A3006 RMK A01 T00431053  RH  050%=      5-min Rain = 0
KPVS 180140Z 18007KT 04/M05 A3006 RMK A01 T00431053  RH  050%=      5-min Rain = 0
KPVS 180141Z 18007KT 04/M05 A3006 RMK A01 T00421053  RH  050%=      5-min Rain = 0
KPVS 180142Z 18007KT 04/M05 A3006 RMK A01 T00421052  RH  050%=      5-min Rain = 0
KPVS 180143Z 18007KT 04/M05 A3006 RMK A01 T00421052  RH  050%=      5-min Rain = 0
KPVS 180144Z 18007KT 04/M05 A3006 RMK A01 T00411052  RH  050%=      5-min Rain = 0
KPVS 180145Z 18007KT 04/M05 A3006 RMK A01 T00411053  RH  050%=      5-min Rain = 0
KPVS 180146Z 18007KT 04/M05 A3006 RMK A01 T00401053  RH  051%=      5-min Rain = 0
KPVS 180147Z 18007KT 04/M05 A3006 RMK A01 T00401053  RH  051%=      5-min Rain = 0
KPVS 180148Z 18007KT 04/M05 A3006 RMK A01 T00391053  RH  051%=      5-min Rain = 0
KPVS 180149Z 18008KT 04/M05 A3006 RMK A01 T00381054  RH  051%=      5-min Rain = 0
KPVS 180150Z 18007KT 04/M05 A3006 RMK A01 T00381054  RH  051%=      5-min Rain = 0
KPVS 180151Z 18007KT 04/M05 A3006 RMK A01 T00371054  RH  051%=      5-min Rain = 0
KPVS 180152Z 19007KT 04/M05 A3006 RMK A01 T00361054  RH  052%=      5-min Rain = 0
KPVS 180153Z 19007KT 04/M05 A3006 RMK A01 T00351054  RH  052%=      5-min Rain = 0
KPVS 180154Z 19008KT 04/M05 A3006 RMK A01 T00351054  RH  052%=      5-min Rain = 0
KPVS 180155Z 19008KT 03/M06 A3006 RMK A01 T00341055  RH  052%=      5-min Rain = 0
KPVS 180156Z 19008KT 03/M06 A3006 RMK A01 T00341055  RH  052%=      5-min Rain = 0
KPVS 180157Z 19008KT 03/M06 A3006 RMK A01 T00331055  RH  052%=      5-min Rain = 0
KPVS 180158Z 19009KT 03/M06 A3006 RMK A01 T00331055  RH  053%=      5-min Rain = 0
KPVS 180159Z 19010KT 03/M05 A3006 RMK A01 T00331054  RH  053%=      5-min Rain = 0
KPVS 180200Z 19009KT 03/M05 A3006 RMK A01 T00341054  RH  053%=      5-min Rain = 0
KPVS 180201Z 19009KT 04/M05 A3006 RMK A01 T00351053  RH  053%=      5-min Rain = 0
KPVS 180202Z 19008KT 04/M05 A3006 RMK A01 T00351053  RH  052%=      5-min Rain = 0
KPVS 180203Z 19008KT 04/M05 A3006 RMK A01 T00351053  RH  052%=      5-min Rain = 0
KPVS 180204Z 19008KT 04/M05 A3006 RMK A01 T00351053  RH  053%=      5-min Rain = 0
KPVS 180205Z 19008KT 04/M05 A3006 RMK A01 T00351053  RH  053%=      5-min Rain = 0
KPVS 180206Z 19007KT 04/M05 A3006 RMK A01 T00351052  RH  053%=      5-min Rain = 0
KPVS 180207Z 20006KT 04/M05 A3006 RMK A01 T00351052  RH  053%=      5-min Rain = 0
KPVS 180208Z 20007KT 04/M05 A3006 RMK A01 T00351052  RH  053%=      5-min Rain = 0
KPVS 180209Z 20006KT 04/M05 A3006 RMK A01 T00351052  RH  053%=      5-min Rain = 0
KPVS 180210Z 20006KT 04/M05 A3006 RMK A01 T00351052  RH  053%=      5-min Rain = 0
KPVS 180211Z 20007KT 04/M05 A3006 RMK A01 T00351052  RH  053%=      5-min Rain = 0
KPVS 180212Z 21006KT 04/M05 A3006 RMK A01 T00361051  RH  053%=      5-min Rain = 0
KPVS 180213Z 20006KT 04/M05 A3006 RMK A01 T00361051  RH  053%=      5-min Rain = 0
KPVS 180214Z 20006KT 04/M05 A3006 RMK A01 T00351052  RH  053%=      5-min Rain = 0
KPVS 180215Z 20006KT 04/M05 A3006 RMK A01 T00351052  RH  053%=      5-min Rain = 0
KPVS 180216Z 20006KT 03/M05 A3006 RMK A01 T00341052  RH  053%=      5-min Rain = 0
KPVS 180217Z 20006KT 03/M05 A3006 RMK A01 T00331052  RH  054%=      5-min Rain = 0
KPVS 180218Z 19005KT 03/M05 A3006 RMK A01 T00311052  RH  054%=      5-min Rain = 0
KPVS 180219Z 19005KT 03/M05 A3006 RMK A01 T00301052  RH  055%=      5-min Rain = 0
KPVS 180220Z 18005KT 03/M05 A3006 RMK A01 T00291052  RH  055%=      5-min Rain = 0
KPVS 180221Z 19006KT 03/M05 A3006 RMK A01 T00291052  RH  055%=      5-min Rain = 0
KPVS 180222Z 19008KT 03/M05 A3006 RMK A01 T00291051  RH  055%=      5-min Rain = 0
KPVS 180223Z 19007KT 03/M05 A3006 RMK A01 T00311051  RH  055%=      5-min Rain = 0
KPVS 180224Z 19007KT 03/M05 A3006 RMK A01 T00311052  RH  055%=      5-min Rain = 0
KPVS 180225Z 19007KT 03/M05 A3006 RMK A01 T00311052  RH  055%=      5-min Rain = 0
KPVS 180226Z 19007KT 03/M05 A3006 RMK A01 T00301052  RH  055%=      5-min Rain = 0
KPVS 180227Z 19006KT 03/M05 A3006 RMK A01 T00291052  RH  055%=      5-min Rain = 0
KPVS 180228Z 19007KT 03/M05 A3006 RMK A01 T00291052  RH  055%=      5-min Rain = 0
KPVS 180229Z 19006KT 03/M05 A3006 RMK A01 T00291052  RH  055%=      5-min Rain = 0
KPVS 180230Z 20008KT 03/M05 A3006 RMK A01 T00281053  RH  055%=      5-min Rain = 0
KPVS 180231Z 20006KT 03/M05 A3006 RMK A01 T00271053  RH  056%=      5-min Rain = 0
KPVS 180232Z 18006KT 03/M05 A3006 RMK A01 T00271053  RH  056%=      5-min Rain = 0
KPVS 180233Z 19007KT 03/M05 A3006 RMK A01 T00261053  RH  056%=      5-min Rain = 0
KPVS 180234Z 19007KT 03/M05 A3006 RMK A01 T00261052  RH  056%=      5-min Rain = 0
KPVS 180235Z 18008KT 03/M05 A3005 RMK A01 T00261052  RH  057%=      5-min Rain = 0
KPVS 180236Z 18008KT 03/M05 A3005 RMK A01 T00261052  RH  057%=      5-min Rain = 0
KPVS 180237Z 18007KT 03/M05 A3005 RMK A01 T00261052  RH  056%=      5-min Rain = 0
KPVS 180238Z 18009KT 03/M05 A3005 RMK A01 T00251052  RH  057%=      5-min Rain = 0
KPVS 180239Z 18008KT 02/M05 A3005 RMK A01 T00241052  RH  057%=      5-min Rain = 0
KPVS 180240Z 18008KT 02/M05 A3005 RMK A01 T00241052  RH  057%=      5-min Rain = 0
KPVS 180241Z 18008KT 02/M05 A3005 RMK A01 T00231052  RH  058%=      5-min Rain = 0
KPVS 180242Z 18009KT 02/M05 A3005 RMK A01 T00231051  RH  058%=      5-min Rain = 0
KPVS 180243Z 19009KT 03/M05 A3005 RMK A01 T00251050  RH  058%=      5-min Rain = 0
KPVS 180244Z 19009KT 03/M05 A3005 RMK A01 T00261050  RH  057%=      5-min Rain = 0
KPVS 180245Z 19009KT 03/M05 A3005 RMK A01 T00281050  RH  057%=      5-min Rain = 0
KPVS 180246Z 19010KT 03/M05 A3005 RMK A01 T00281050  RH  057%=      5-min Rain = 0
KPVS 180247Z 19010KT 03/M05 A3004 RMK A01 T00281050  RH  056%=      5-min Rain = 0
KPVS 180248Z 18010KT 03/M05 A3004 RMK A01 T00281049  RH  057%=      5-min Rain = 0
KPVS 180249Z 19011KT 03/M05 A3004 RMK A01 T00281049  RH  057%=      5-min Rain = 0
KPVS 180250Z 18010KT 03/M05 A3004 RMK A01 T00291049  RH  057%=      5-min Rain = 0
KPVS 180251Z 19010KT 03/M05 A3004 RMK A01 T00291049  RH  056%=      5-min Rain = 0
KPVS 180252Z 19010KT 03/M05 A3004 RMK A01 T00291049  RH  057%=      5-min Rain = 0
KPVS 180253Z 19009KT 03/M05 A3004 RMK A01 T00291049  RH  057%=      5-min Rain = 0
KPVS 180254Z 19010KT 03/M05 A3004 RMK A01 T00281049  RH  057%=      5-min Rain = 0
KPVS 180255Z 19009KT 03/M05 A3005 RMK A01 T00281049  RH  057%=      5-min Rain = 0
KPVS 180256Z 19010KT 03/M05 A3005 RMK A01 T00291048  RH  057%=      5-min Rain = 0
KPVS 180257Z 19009KT 03/M05 A3005 RMK A01 T00291049  RH  056%=      5-min Rain = 0
KPVS 180258Z 19009KT 03/M05 A3005 RMK A01 T00291049  RH  056%=      5-min Rain = 0
KPVS 180259Z 19009KT 03/M05 A3005 RMK A01 T00291049  RH  056%=      5-min Rain = 0
KPVS 180300Z 19009KT 03/M05 A3005 RMK A01 T00291049  RH  056%=      5-min Rain = 0
KPVS 180301Z 19009KT 03/M05 A3005 RMK A01 T00291049  RH  056%=      5-min Rain = 0
KPVS 180302Z 19010KT 03/M05 A3004 RMK A01 T00291049  RH  056%=      5-min Rain = 0
KPVS 180303Z 19010KT 03/M05 A3004 RMK A01 T00291048  RH  057%=      5-min Rain = 0
KPVS 180304Z 19010KT 03/M05 A3004 RMK A01 T00291048  RH  057%=      5-min Rain = 0
KPVS 180305Z 19009KT 03/M05 A3004 RMK A01 T00301049  RH  056%=      5-min Rain = 0
KPVS 180306Z 19009KT 03/M05 A3004 RMK A01 T00301049  RH  056%=      5-min Rain = 0
KPVS 180307Z 19010KT 03/M05 A3004 RMK A01 T00301049  RH  056%=      5-min Rain = 0
KPVS 180308Z 19009KT 03/M05 A3004 RMK A01 T00301049  RH  056%=      5-min Rain = 0
KPVS 180309Z 19009KT 03/M05 A3004 RMK A01 T00301049  RH  056%=      5-min Rain = 0
KPVS 180310Z 19008KT 03/M05 A3004 RMK A01 T00291049  RH  056%=      5-min Rain = 0
KPVS 180311Z 19009KT 03/M05 A3004 RMK A01 T00291049  RH  056%=      5-min Rain = 0
KPVS 180312Z 19008KT 03/M05 A3004 RMK A01 T00291049  RH  056%=      5-min Rain = 0
KPVS 180313Z 19009KT 03/M05 A3004 RMK A01 T00291049  RH  056%=      5-min Rain = 0
KPVS 180314Z 19009KT 03/M05 A3004 RMK A01 T00301049  RH  056%=      5-min Rain = 0
KPVS 180315Z 19009KT 03/M05 A3004 RMK A01 T00301049  RH  056%=      5-min Rain = 0
KPVS 180316Z 19008KT 03/M05 A3004 RMK A01 T00301049  RH  056%=      5-min Rain = 0
KPVS 180317Z 19009KT 03/M05 A3004 RMK A01 T00291049  RH  056%=      5-min Rain = 0
KPVS 180318Z 19009KT 03/M05 A3004 RMK A01 T00291049  RH  056%=      5-min Rain = 0
KPVS 180319Z 19008KT 03/M05 A3004 RMK A01 T00291050  RH  056%=      5-min Rain = 0
KPVS 180320Z 19007KT 03/M05 A3004 RMK A01 T00281050  RH  056%=      5-min Rain = 0
KPVS 180321Z 19008KT 03/M05 A3004 RMK A01 T00281050  RH  057%=      5-min Rain = 0
KPVS 180322Z 19007KT 03/M05 A3004 RMK A01 T00281050  RH  057%=      5-min Rain = 0
KPVS 180323Z 19007KT 03/M05 A3004 RMK A01 T00281050  RH  056%=      5-min Rain = 0
KPVS 180324Z 19007KT 03/M05 A3004 RMK A01 T00271050  RH  057%=      5-min Rain = 0
KPVS 180325Z 19007KT 03/M05 A3004 RMK A01 T00261050  RH  057%=      5-min Rain = 0
KPVS 180326Z 19006KT 03/M05 A3004 RMK A01 T00261050  RH  057%=      5-min Rain = 0
KPVS 180327Z 19006KT 03/M05 A3004 RMK A01 T00251050  RH  057%=      5-min Rain = 0
KPVS 180328Z 19006KT 03/M05 A3004 RMK A01 T00251050  RH  058%=      5-min Rain = 0
KPVS 180329Z 20005KT 02/M05 A3003 RMK A01 T00241050  RH  058%=      5-min Rain = 0
KPVS 180330Z 20006KT 02/M05 A3003 RMK A01 T00231051  RH  058%=      5-min Rain = 0
KPVS 180331Z 19005KT 02/M05 A3003 RMK A01 T00221051  RH  059%=      5-min Rain = 0
KPVS 180332Z 20006KT 02/M05 A3003 RMK A01 T00211050  RH  059%=      5-min Rain = 0
KPVS 180333Z 20006KT 02/M05 A3003 RMK A01 T00211050  RH  059%=      5-min Rain = 0
KPVS 180334Z 20005KT 02/M05 A3003 RMK A01 T00211050  RH  059%=      5-min Rain = 0
KPVS 180335Z 20005KT 02/M05 A3003 RMK A01 T00211050  RH  059%=      5-min Rain = 0
KPVS 180336Z 20005KT 02/M05 A3003 RMK A01 T00211050  RH  059%=      5-min Rain = 0
KPVS 180337Z 20005KT 02/M05 A3003 RMK A01 T00221050  RH  059%=      5-min Rain = 0
KPVS 180338Z 20005KT 02/M05 A3003 RMK A01 T00221049  RH  059%=      5-min Rain = 0
KPVS 180339Z 20005KT 02/M05 A3003 RMK A01 T00221049  RH  059%=      5-min Rain = 0
KPVS 180340Z 20004KT 02/M05 A3003 RMK A01 T00221049  RH  059%=      5-min Rain = 0
KPVS 180341Z 20004KT 02/M05 A3003 RMK A01 T00221049  RH  059%=      5-min Rain = 0
KPVS 180342Z 20003KT 02/M05 A3003 RMK A01 T00221049  RH  059%=      5-min Rain = 0
KPVS 180343Z 20003KT 02/M05 A3003 RMK A01 T00221049  RH  059%=      5-min Rain = 0
KPVS 180344Z 20004KT 02/M05 A3003 RMK A01 T00221049  RH  059%=      5-min Rain = 0
KPVS 180345Z 19004KT 02/M05 A3003 RMK A01 T00221049  RH  059%=      5-min Rain = 0
KPVS 180346Z 19004KT 02/M05 A3003 RMK A01 T00221049  RH  059%=      5-min Rain = 0
KPVS 180347Z 19005KT 02/M05 A3003 RMK A01 T00221049  RH  059%=      5-min Rain = 0
KPVS 180348Z 19006KT 02/M05 A3003 RMK A01 T00221049  RH  059%=      5-min Rain = 0
KPVS 180349Z 19007KT 02/M05 A3003 RMK A01 T00221049  RH  059%=      5-min Rain = 0
KPVS 180350Z 19007KT 02/M05 A3003 RMK A01 T00221049  RH  059%=      5-min Rain = 0
KPVS 180351Z 19007KT 02/M05 A3003 RMK A01 T00211049  RH  059%=      5-min Rain = 0
KPVS 180352Z 19007KT 02/M05 A3002 RMK A01 T00211049  RH  060%=      5-min Rain = 0
KPVS 180353Z 19007KT 02/M05 A3002 RMK A01 T00211049  RH  060%=      5-min Rain = 0
KPVS 180354Z 18007KT 02/M05 A3002 RMK A01 T00211049  RH  060%=      5-min Rain = 0
KPVS 180355Z 19007KT 02/M05 A3002 RMK A01 T00201049  RH  060%=      5-min Rain = 0
KPVS 180356Z 19008KT 02/M05 A3002 RMK A01 T00201049  RH  060%=      5-min Rain = 0
KPVS 180357Z 19008KT 02/M05 A3002 RMK A01 T00211049  RH  060%=      5-min Rain = 0
KPVS 180358Z 19007KT 02/M05 A3002 RMK A01 T00221049  RH  059%=      5-min Rain = 0
KPVS 180359Z 19008KT 02/M05 A3002 RMK A01 T00221049  RH  059%=      5-min Rain = 0
KPVS 180400Z 19006KT 02/M05 A3002 RMK A01 T00221049  RH  059%=      5-min Rain = 0
KPVS 180401Z 19006KT 02/M05 A3002 RMK A01 T00211049  RH  060%=      5-min Rain = 0
KPVS 180402Z 19005KT 02/M05 A3002 RMK A01 T00211049  RH  060%=      5-min Rain = 0
KPVS 180403Z 20005KT 02/M05 A3002 RMK A01 T00201049  RH  060%=      5-min Rain = 0
KPVS 180404Z 20005KT 02/M05 A3002 RMK A01 T00201049  RH  060%=      5-min Rain = 0
KPVS 180405Z 20005KT 02/M05 A3002 RMK A01 T00201049  RH  061%=      5-min Rain = 0
KPVS 180406Z 20005KT 02/M05 A3002 RMK A01 T00201049  RH  061%=      5-min Rain = 0
KPVS 180407Z 19005KT 02/M05 A3002 RMK A01 T00201049  RH  060%=      5-min Rain = 0
KPVS 180408Z 20004KT 02/M05 A3002 RMK A01 T00201049  RH  060%=      5-min Rain = 0
KPVS 180409Z 19005KT 02/M05 A3002 RMK A01 T00201049  RH  060%=      5-min Rain = 0
KPVS 180410Z 18006KT 02/M05 A3002 RMK A01 T00201049  RH  060%=      5-min Rain = 0
KPVS 180411Z 18007KT 02/M05 A3002 RMK A01 T00201049  RH  060%=      5-min Rain = 0
KPVS 180412Z 18006KT 02/M05 A3002 RMK A01 T00201049  RH  060%=      5-min Rain = 0
KPVS 180413Z 18007KT 02/M05 A3002 RMK A01 T00191050  RH  061%=      5-min Rain = 0
KPVS 180414Z 18006KT 02/M05 A3001 RMK A01 T00171050  RH  061%=      5-min Rain = 0
KPVS 180415Z 18006KT 02/M05 A3001 RMK A01 T00161050  RH  062%=      5-min Rain = 0
KPVS 180416Z 18006KT 02/M05 A3001 RMK A01 T00151050  RH  062%=      5-min Rain = 0
KPVS 180417Z 18006KT 02/M05 A3001 RMK A01 T00151049  RH  062%=      5-min Rain = 0
KPVS 180418Z 18007KT 02/M05 A3001 RMK A01 T00151049  RH  062%=      5-min Rain = 0
KPVS 180419Z 18007KT 02/M05 A3001 RMK A01 T00151049  RH  062%=      5-min Rain = 0
KPVS 180420Z 18007KT 02/M05 A3001 RMK A01 T00151049  RH  062%=      5-min Rain = 0
KPVS 180421Z 18006KT 02/M05 A3001 RMK A01 T00161049  RH  062%=      5-min Rain = 0
KPVS 180422Z 19007KT 02/M05 A3001 RMK A01 T00161049  RH  062%=      5-min Rain = 0
KPVS 180423Z 19006KT 02/M05 A3001 RMK A01 T00171049  RH  062%=      5-min Rain = 0
KPVS 180424Z 19005KT 02/M05 A3001 RMK A01 T00171049  RH  062%=      5-min Rain = 0
KPVS 180425Z 19006KT 02/M05 A3001 RMK A01 T00171049  RH  062%=      5-min Rain = 0
KPVS 180426Z 19005KT 02/M05 A3001 RMK A01 T00171049  RH  062%=      5-min Rain = 0
KPVS 180427Z 19006KT 02/M05 A3001 RMK A01 T00171049  RH  062%=      5-min Rain = 0
KPVS 180428Z 20006KT 02/M05 A3001 RMK A01 T00161049  RH  062%=      5-min Rain = 0
KPVS 180429Z 19007KT 02/M05 A3001 RMK A01 T00151049  RH  062%=      5-min Rain = 0
KPVS 180430Z 19007KT 02/M05 A3001 RMK A01 T00151049  RH  063%=      5-min Rain = 0
KPVS 180431Z 19008KT 02/M05 A3001 RMK A01 T00151049  RH  062%=      5-min Rain = 0
KPVS 180432Z 19008KT 02/M05 A3001 RMK A01 T00151049  RH  062%=      5-min Rain = 0
KPVS 180433Z 19006KT 02/M05 A3001 RMK A01 T00161049  RH  062%=      5-min Rain = 0
KPVS 180434Z 19005KT 02/M05 A3001 RMK A01 T00161049  RH  062%=      5-min Rain = 0
KPVS 180435Z 19006KT 02/M05 A3001 RMK A01 T00161049  RH  062%=      5-min Rain = 0
KPVS 180436Z 19006KT 02/M05 A3001 RMK A01 T00151049  RH  062%=      5-min Rain = 0
KPVS 180437Z 19005KT 02/M05 A3001 RMK A01 T00151050  RH  062%=      5-min Rain = 0
KPVS 180438Z 20004KT 02/M05 A30 RMK A01 T00151050  RH  062%=      5-min Rain = 0
KPVS 180439Z 19005KT 01/M05 A30 RMK A01 T00141050  RH  062%=      5-min Rain = 0
KPVS 180440Z 19006KT 01/M05 A30 RMK A01 T00141050  RH  063%=      5-min Rain = 0
KPVS 180441Z 19007KT 01/M05 A30 RMK A01 T00141050  RH  063%=      5-min Rain = 0
KPVS 180442Z 19006KT 01/M05 A30 RMK A01 T00141050  RH  062%=      5-min Rain = 0
KPVS 180443Z 20005KT 01/M05 A30 RMK A01 T00141050  RH  062%=      5-min Rain = 0
KPVS 180444Z 19006KT 01/M05 A30 RMK A01 T00141050  RH  062%=      5-min Rain = 0
KPVS 180445Z 19006KT 01/M05 A30 RMK A01 T00131050  RH  063%=      5-min Rain = 0
KPVS 180446Z 19007KT 01/M05 A30 RMK A01 T00131050  RH  062%=      5-min Rain = 0
KPVS 180447Z 19007KT 01/M05 A30 RMK A01 T00131051  RH  062%=      5-min Rain = 0
KPVS 180448Z 19006KT 01/M05 A30 RMK A01 T00141051  RH  062%=      5-min Rain = 0
KPVS 180449Z 19006KT 01/M05 A30 RMK A01 T00141051  RH  062%=      5-min Rain = 0
KPVS 180450Z 19007KT 01/M05 A30 RMK A01 T00141051  RH  062%=      5-min Rain = 0
KPVS 180451Z 19007KT 01/M05 A30 RMK A01 T00131051  RH  062%=      5-min Rain = 0
KPVS 180452Z 19006KT 01/M05 A30 RMK A01 T00131051  RH  062%=      5-min Rain = 0
KPVS 180453Z 20005KT 01/M05 A30 RMK A01 T00131051  RH  062%=      5-min Rain = 0
KPVS 180454Z 20006KT 01/M05 A30 RMK A01 T00121051  RH  062%=      5-min Rain = 0
KPVS 180455Z 20006KT 01/M05 A30 RMK A01 T00121051  RH  063%=      5-min Rain = 0
KPVS 180456Z 20005KT 01/M05 A30 RMK A01 T00111051  RH  063%=      5-min Rain = 0
KPVS 180457Z 20005KT 01/M05 A30 RMK A01 T00111051  RH  063%=      5-min Rain = 0
KPVS 180458Z 20006KT 01/M05 A30 RMK A01 T00101052  RH  063%=      5-min Rain = 0
KPVS 180459Z 20006KT 01/M05 A30 RMK A01 T00101052  RH  064%=      5-min Rain = 0
KPVS 180500Z 20005KT 01/M05 A30 RMK A01 T00091052  RH  064%=      5-min Rain = 0
KPVS 180501Z 20004KT 01/M05 A30 RMK A01 T00101052  RH  064%=      5-min Rain = 0
KPVS 180502Z 20004KT 01/M05 A2999 RMK A01 T00101052  RH  063%=      5-min Rain = 0
KPVS 180503Z 20004KT 01/M05 A2999 RMK A01 T00101052  RH  063%=      5-min Rain = 0
KPVS 180504Z 20004KT 01/M05 A2999 RMK A01 T00111051  RH  063%=      5-min Rain = 0
KPVS 180505Z 19005KT 01/M05 A2999 RMK A01 T00111051  RH  063%=      5-min Rain = 0
KPVS 180506Z 18006KT 01/M05 A2999 RMK A01 T00121051  RH  063%=      5-min Rain = 0
KPVS 180507Z 18007KT 01/M05 A2999 RMK A01 T00121051  RH  063%=      5-min Rain = 0
KPVS 180508Z 19008KT 01/M05 A2999 RMK A01 T00131051  RH  063%=      5-min Rain = 0
KPVS 180509Z 19008KT 01/M05 A2999 RMK A01 T00141050  RH  062%=      5-min Rain = 0
KPVS 180510Z 19008KT 01/M05 A2999 RMK A01 T00141051  RH  062%=      5-min Rain = 0
KPVS 180511Z 19008KT 01/M05 A2999 RMK A01 T00141051  RH  062%=      5-min Rain = 0
KPVS 180512Z 19008KT 01/M05 A2999 RMK A01 T00141051  RH  062%=      5-min Rain = 0
KPVS 180513Z 19008KT 01/M05 A2999 RMK A01 T00141051  RH  062%=      5-min Rain = 0
KPVS 180514Z 19008KT 01/M05 A2999 RMK A01 T00131051  RH  062%=      5-min Rain = 0
KPVS 180515Z 19008KT 01/M05 A2999 RMK A01 T00131051  RH  062%=      5-min Rain = 0
KPVS 180516Z 19008KT 01/M05 A2999 RMK A01 T00121051  RH  062%=      5-min Rain = 0
KPVS 180517Z 19009KT 01/M05 A2999 RMK A01 T00121051  RH  063%=      5-min Rain = 0
KPVS 180518Z 19008KT 01/M05 A2999 RMK A01 T00131051  RH  062%=      5-min Rain = 0
KPVS 180519Z 19008KT 01/M05 A2999 RMK A01 T00131051  RH  062%=      5-min Rain = 0
KPVS 180520Z 19009KT 01/M05 A2999 RMK A01 T00131051  RH  062%=      5-min Rain = 0
KPVS 180521Z 19010KT 01/M05 A2998 RMK A01 T00131051  RH  062%=      5-min Rain = 0
KPVS 180522Z 19010KT 01/M05 A2998 RMK A01 T00131051  RH  062%=      5-min Rain = 0
KPVS 180523Z 19009KT 01/M05 A2998 RMK A01 T00141051  RH  062%=      5-min Rain = 0
KPVS 180524Z 19009KT 01/M05 A2998 RMK A01 T00131051  RH  062%=      5-min Rain = 0
KPVS 180525Z 19010KT 01/M05 A2999 RMK A01 T00131051  RH  062%=      5-min Rain = 0
KPVS 180526Z 19010KT 01/M05 A2998 RMK A01 T00131052  RH  062%=      5-min Rain = 0
KPVS 180527Z 19011KT 01/M05 A2998 RMK A01 T00131052  RH  062%=      5-min Rain = 0
KPVS 180528Z 19009KT 01/M05 A2998 RMK A01 T00131052  RH  062%=      5-min Rain = 0
KPVS 180529Z 19008KT 01/M05 A2998 RMK A01 T00141051  RH  062%=      5-min Rain = 0
KPVS 180530Z 19008KT 01/M05 A2999 RMK A01 T00131051  RH  062%=      5-min Rain = 0
KPVS 180531Z 20007KT 01/M05 A2999 RMK A01 T00131051  RH  062%=      5-min Rain = 0
KPVS 180532Z 19007KT 01/M05 A2999 RMK A01 T00121051  RH  063%=      5-min Rain = 0
KPVS 180533Z 20007KT 01/M05 A2999 RMK A01 T00121051  RH  063%=      5-min Rain = 0
KPVS 180534Z 19007KT 01/M05 A2999 RMK A01 T00121051  RH  063%=      5-min Rain = 0
KPVS 180535Z 19007KT 01/M05 A2999 RMK A01 T00131051  RH  063%=      5-min Rain = 0
KPVS 180536Z 19007KT 01/M05 A2998 RMK A01 T00131051  RH  062%=      5-min Rain = 0
KPVS 180537Z 19007KT 01/M05 A2998 RMK A01 T00141051  RH  062%=      5-min Rain = 0
KPVS 180538Z 19007KT 01/M05 A2998 RMK A01 T00141051  RH  062%=      5-min Rain = 0
KPVS 180539Z 19007KT 01/M05 A2998 RMK A01 T00141051  RH  062%=      5-min Rain = 0
KPVS 180540Z 19007KT 02/M05 A2998 RMK A01 T00151051  RH  062%=      5-min Rain = 0
KPVS 180541Z 19008KT 01/M05 A2998 RMK A01 T00141051  RH  062%=      5-min Rain = 0
KPVS 180542Z 19008KT 01/M05 A2998 RMK A01 T00141051  RH  062%=      5-min Rain = 0
KPVS 180543Z 19008KT 01/M05 A2998 RMK A01 T00131051  RH  062%=      5-min Rain = 0
KPVS 180544Z 19009KT 01/M05 A2998 RMK A01 T00131051  RH  062%=      5-min Rain = 0
KPVS 180545Z 19008KT 01/M05 A2998 RMK A01 T00131051  RH  062%=      5-min Rain = 0
KPVS 180546Z 19007KT 01/M05 A2998 RMK A01 T00131051  RH  062%=      5-min Rain = 0
KPVS 180547Z 19007KT 01/M05 A2998 RMK A01 T00131051  RH  063%=      5-min Rain = 0
KPVS 180548Z 19008KT 01/M05 A2998 RMK A01 T00121051  RH  063%=      5-min Rain = 0
KPVS 180549Z 19008KT 01/M05 A2998 RMK A01 T00121051  RH  063%=      5-min Rain = 0
KPVS 180550Z 19010KT 01/M05 A2998 RMK A01 T00131051  RH  063%=      5-min Rain = 0
KPVS 180551Z 19010KT 01/M05 A2998 RMK A01 T00141050  RH  062%=      5-min Rain = 0
KPVS 180552Z 19010KT 02/M05 A2998 RMK A01 T00151050  RH  062%=      5-min Rain = 0
KPVS 180553Z 19009KT 02/M05 A2998 RMK A01 T00151050  RH  062%=      5-min Rain = 0
KPVS 180554Z 19009KT 02/M05 A2998 RMK A01 T00151051  RH  062%=      5-min Rain = 0
KPVS 180555Z 19010KT 02/M05 A2998 RMK A01 T00151050  RH  062%=      5-min Rain = 0
KPVS 180556Z 19009KT 02/M05 A2998 RMK A01 T00151050  RH  062%=      5-min Rain = 0
KPVS 180557Z 19009KT 01/M05 A2998 RMK A01 T00141050  RH  062%=      5-min Rain = 0
KPVS 180558Z 20008KT 01/M05 A2998 RMK A01 T00141050  RH  062%=      5-min Rain = 0
KPVS 180559Z 19008KT 01/M05 A2997 RMK A01 T00141050  RH  063%=      5-min Rain = 0

Page generated in 0.1716 seconds.